<?xml version="1.0" encoding="UTF-8" standalone="no" ?>
<gpx xmlns="http://www.topografix.com/GPX/1/1" xmlns:xsi="http://www.w3.org/2001/XMLSchema-instance" xsi:schemaLocation="http://www.topografix.com/GPX/1/1 http://www.topografix.com/GPX/1/1/gpx.xsd" version="1.1" creator="VisuGPX - https://www.visugpx.com">
  <metadata>
    <name>8 de la chabanne</name>
    <desc><![CDATA[Boucle dans la vallée du sapey et bois de l assise]]></desc>
  </metadata>
  <trk>
    <name><![CDATA[track]]></name>
    <trkseg>
      <trkpt lat="46.02196" lon="3.75239">
        <ele>681</ele>
        <time>2013-08-21T15:05:19Z</time>
      </trkpt>
      <trkpt lat="46.02201" lon="3.75282">
        <ele>682</ele>
        <time>2013-08-21T15:05:19Z</time>
      </trkpt>
      <trkpt lat="46.02208" lon="3.75318">
        <ele>683</ele>
        <time>2013-08-21T15:05:19Z</time>
      </trkpt>
      <trkpt lat="46.02238" lon="3.75372">
        <ele>686</ele>
        <time>2013-08-21T15:05:19Z</time>
      </trkpt>
      <trkpt lat="46.02271" lon="3.75413">
        <ele>690</ele>
        <time>2013-08-21T15:05:19Z</time>
      </trkpt>
      <trkpt lat="46.02318" lon="3.75421">
        <ele>700</ele>
        <time>2013-08-21T15:05:19Z</time>
      </trkpt>
      <trkpt lat="46.02365" lon="3.75447">
        <ele>704</ele>
        <time>2013-08-21T15:05:19Z</time>
      </trkpt>
      <trkpt lat="46.02395" lon="3.75467">
        <ele>707</ele>
        <time>2013-08-21T15:05:19Z</time>
      </trkpt>
      <trkpt lat="46.02442" lon="3.75522">
        <ele>715</ele>
        <time>2013-08-21T15:05:19Z</time>
      </trkpt>
      <trkpt lat="46.0245" lon="3.75537">
        <ele>716</ele>
        <time>2013-08-21T15:05:19Z</time>
      </trkpt>
      <trkpt lat="46.02471" lon="3.75558">
        <ele>719</ele>
        <time>2013-08-21T15:05:19Z</time>
      </trkpt>
      <trkpt lat="46.02496" lon="3.756">
        <ele>724</ele>
        <time>2013-08-21T15:05:19Z</time>
      </trkpt>
      <trkpt lat="46.02505" lon="3.75623">
        <ele>727</ele>
        <time>2013-08-21T15:05:19Z</time>
      </trkpt>
      <trkpt lat="46.02514" lon="3.75636">
        <ele>731</ele>
        <time>2013-08-21T15:05:19Z</time>
      </trkpt>
      <trkpt lat="46.02519" lon="3.75662">
        <ele>734</ele>
        <time>2013-08-21T15:05:19Z</time>
      </trkpt>
      <trkpt lat="46.02518" lon="3.75676">
        <ele>732</ele>
        <time>2013-08-21T15:05:19Z</time>
      </trkpt>
      <trkpt lat="46.02518" lon="3.75709">
        <ele>742</ele>
        <time>2013-08-21T15:05:19Z</time>
      </trkpt>
      <trkpt lat="46.02512" lon="3.75714">
        <ele>744</ele>
        <time>2013-08-21T15:05:19Z</time>
      </trkpt>
      <trkpt lat="46.02503" lon="3.75753">
        <ele>750</ele>
        <time>2013-08-21T15:05:19Z</time>
      </trkpt>
      <trkpt lat="46.02495" lon="3.75769">
        <ele>753</ele>
        <time>2013-08-21T15:05:19Z</time>
      </trkpt>
      <trkpt lat="46.02487" lon="3.75802">
        <ele>758</ele>
        <time>2013-08-21T15:05:19Z</time>
      </trkpt>
      <trkpt lat="46.02498" lon="3.7585">
        <ele>764</ele>
        <time>2013-08-21T15:05:19Z</time>
      </trkpt>
      <trkpt lat="46.02504" lon="3.75868">
        <ele>766</ele>
        <time>2013-08-21T15:05:19Z</time>
      </trkpt>
      <trkpt lat="46.02518" lon="3.75894">
        <ele>769</ele>
        <time>2013-08-21T15:05:19Z</time>
      </trkpt>
      <trkpt lat="46.02524" lon="3.75918">
        <ele>770</ele>
        <time>2013-08-21T15:05:19Z</time>
      </trkpt>
      <trkpt lat="46.0253" lon="3.75968">
        <ele>770</ele>
        <time>2013-08-21T15:05:19Z</time>
      </trkpt>
      <trkpt lat="46.02527" lon="3.75995">
        <ele>772</ele>
        <time>2013-08-21T15:05:19Z</time>
      </trkpt>
      <trkpt lat="46.0251" lon="3.76064">
        <ele>778</ele>
        <time>2013-08-21T15:05:19Z</time>
      </trkpt>
      <trkpt lat="46.02504" lon="3.76097">
        <ele>782</ele>
        <time>2013-08-21T15:05:19Z</time>
      </trkpt>
      <trkpt lat="46.02489" lon="3.76127">
        <ele>785</ele>
        <time>2013-08-21T15:05:19Z</time>
      </trkpt>
      <trkpt lat="46.02481" lon="3.76136">
        <ele>785</ele>
        <time>2013-08-21T15:05:19Z</time>
      </trkpt>
      <trkpt lat="46.0246" lon="3.76174">
        <ele>786</ele>
        <time>2013-08-21T15:05:19Z</time>
      </trkpt>
      <trkpt lat="46.0246" lon="3.76203">
        <ele>788</ele>
        <time>2013-08-21T15:05:19Z</time>
      </trkpt>
      <trkpt lat="46.0245" lon="3.76243">
        <ele>789</ele>
        <time>2013-08-21T15:05:19Z</time>
      </trkpt>
      <trkpt lat="46.0245" lon="3.76249">
        <ele>789</ele>
        <time>2013-08-21T15:05:19Z</time>
      </trkpt>
      <trkpt lat="46.02442" lon="3.76261">
        <ele>787</ele>
        <time>2013-08-21T15:05:19Z</time>
      </trkpt>
      <trkpt lat="46.02436" lon="3.76287">
        <ele>786</ele>
        <time>2013-08-21T15:05:19Z</time>
      </trkpt>
      <trkpt lat="46.02427" lon="3.76311">
        <ele>786</ele>
        <time>2013-08-21T15:05:19Z</time>
      </trkpt>
      <trkpt lat="46.02421" lon="3.76339">
        <ele>785</ele>
        <time>2013-08-21T15:05:19Z</time>
      </trkpt>
      <trkpt lat="46.02414" lon="3.7641">
        <ele>784</ele>
        <time>2013-08-21T15:05:19Z</time>
      </trkpt>
      <trkpt lat="46.02444" lon="3.76519">
        <ele>775</ele>
        <time>2013-08-21T15:05:19Z</time>
      </trkpt>
      <trkpt lat="46.02486" lon="3.76598">
        <ele>778</ele>
        <time>2013-08-21T15:05:19Z</time>
      </trkpt>
      <trkpt lat="46.02489" lon="3.76723">
        <ele>776</ele>
        <time>2013-08-21T15:05:19Z</time>
      </trkpt>
      <trkpt lat="46.02503" lon="3.76771">
        <ele>777</ele>
        <time>2013-08-21T15:05:19Z</time>
      </trkpt>
      <trkpt lat="46.02539" lon="3.76832">
        <ele>779</ele>
        <time>2013-08-21T15:05:19Z</time>
      </trkpt>
      <trkpt lat="46.02578" lon="3.76881">
        <ele>779</ele>
        <time>2013-08-21T15:05:19Z</time>
      </trkpt>
      <trkpt lat="46.02592" lon="3.76945">
        <ele>777</ele>
        <time>2013-08-21T15:05:19Z</time>
      </trkpt>
      <trkpt lat="46.0258" lon="3.76985">
        <ele>784</ele>
        <time>2013-08-21T15:05:19Z</time>
      </trkpt>
      <trkpt lat="46.02591" lon="3.77016">
        <ele>786</ele>
        <time>2013-08-21T15:05:19Z</time>
      </trkpt>
      <trkpt lat="46.02612" lon="3.77051">
        <ele>786</ele>
        <time>2013-08-21T15:05:19Z</time>
      </trkpt>
      <trkpt lat="46.02619" lon="3.77122">
        <ele>778</ele>
        <time>2013-08-21T15:05:19Z</time>
      </trkpt>
      <trkpt lat="46.0261" lon="3.7729">
        <ele>775</ele>
        <time>2013-08-21T15:05:19Z</time>
      </trkpt>
      <trkpt lat="46.02617" lon="3.7739">
        <ele>757</ele>
        <time>2013-08-21T15:05:19Z</time>
      </trkpt>
      <trkpt lat="46.02611" lon="3.77448">
        <ele>752</ele>
        <time>2013-08-21T15:05:19Z</time>
      </trkpt>
      <trkpt lat="46.02592" lon="3.77482">
        <ele>744</ele>
        <time>2013-08-21T15:05:19Z</time>
      </trkpt>
      <trkpt lat="46.02569" lon="3.77582">
        <ele>724</ele>
        <time>2013-08-21T15:05:19Z</time>
      </trkpt>
      <trkpt lat="46.02588" lon="3.77589">
        <ele>719</ele>
        <time>2013-08-21T15:05:19Z</time>
      </trkpt>
      <trkpt lat="46.02634" lon="3.77635">
        <ele>716</ele>
        <time>2013-08-21T15:05:19Z</time>
      </trkpt>
      <trkpt lat="46.02632" lon="3.77624">
        <ele>716</ele>
        <time>2013-08-21T15:05:19Z</time>
      </trkpt>
      <trkpt lat="46.02634" lon="3.77614">
        <ele>716</ele>
        <time>2013-08-21T15:05:19Z</time>
      </trkpt>
      <trkpt lat="46.02659" lon="3.77616">
        <ele>722</ele>
        <time>2013-08-21T15:05:19Z</time>
      </trkpt>
      <trkpt lat="46.0269" lon="3.77603">
        <ele>724</ele>
        <time>2013-08-21T15:05:19Z</time>
      </trkpt>
      <trkpt lat="46.02716" lon="3.77599">
        <ele>726</ele>
        <time>2013-08-21T15:05:19Z</time>
      </trkpt>
      <trkpt lat="46.02731" lon="3.77592">
        <ele>728</ele>
        <time>2013-08-21T15:05:19Z</time>
      </trkpt>
      <trkpt lat="46.02757" lon="3.77585">
        <ele>730</ele>
        <time>2013-08-21T15:05:19Z</time>
      </trkpt>
      <trkpt lat="46.02817" lon="3.77541">
        <ele>734</ele>
        <time>2013-08-21T15:05:19Z</time>
      </trkpt>
      <trkpt lat="46.02849" lon="3.77529">
        <ele>736</ele>
        <time>2013-08-21T15:05:19Z</time>
      </trkpt>
      <trkpt lat="46.02856" lon="3.77534">
        <ele>736</ele>
        <time>2013-08-21T15:05:19Z</time>
      </trkpt>
      <trkpt lat="46.02842" lon="3.77531">
        <ele>736</ele>
        <time>2013-08-21T15:05:19Z</time>
      </trkpt>
      <trkpt lat="46.02835" lon="3.77523">
        <ele>736</ele>
        <time>2013-08-21T15:05:19Z</time>
      </trkpt>
      <trkpt lat="46.02836" lon="3.77527">
        <ele>736</ele>
        <time>2013-08-21T15:05:19Z</time>
      </trkpt>
      <trkpt lat="46.02827" lon="3.77522">
        <ele>737</ele>
        <time>2013-08-21T15:05:19Z</time>
      </trkpt>
      <trkpt lat="46.02835" lon="3.77529">
        <ele>736</ele>
        <time>2013-08-21T15:05:19Z</time>
      </trkpt>
      <trkpt lat="46.02834" lon="3.77526">
        <ele>736</ele>
        <time>2013-08-21T15:05:19Z</time>
      </trkpt>
      <trkpt lat="46.02839" lon="3.7752">
        <ele>736</ele>
        <time>2013-08-21T15:05:19Z</time>
      </trkpt>
      <trkpt lat="46.02841" lon="3.77523">
        <ele>737</ele>
        <time>2013-08-21T15:05:19Z</time>
      </trkpt>
      <trkpt lat="46.02838" lon="3.77525">
        <ele>736</ele>
        <time>2013-08-21T15:05:19Z</time>
      </trkpt>
      <trkpt lat="46.02834" lon="3.77533">
        <ele>737</ele>
        <time>2013-08-21T15:05:19Z</time>
      </trkpt>
      <trkpt lat="46.02842" lon="3.77535">
        <ele>736</ele>
        <time>2013-08-21T15:05:19Z</time>
      </trkpt>
      <trkpt lat="46.02837" lon="3.77519">
        <ele>736</ele>
        <time>2013-08-21T15:05:19Z</time>
      </trkpt>
      <trkpt lat="46.02851" lon="3.77524">
        <ele>736</ele>
        <time>2013-08-21T15:05:19Z</time>
      </trkpt>
      <trkpt lat="46.02848" lon="3.77527">
        <ele>735</ele>
        <time>2013-08-21T15:05:19Z</time>
      </trkpt>
      <trkpt lat="46.02855" lon="3.77529">
        <ele>735</ele>
        <time>2013-08-21T15:05:19Z</time>
      </trkpt>
      <trkpt lat="46.02864" lon="3.77511">
        <ele>736</ele>
        <time>2013-08-21T15:05:19Z</time>
      </trkpt>
      <trkpt lat="46.02875" lon="3.77453">
        <ele>739</ele>
        <time>2013-08-21T15:05:19Z</time>
      </trkpt>
      <trkpt lat="46.02883" lon="3.77429">
        <ele>741</ele>
        <time>2013-08-21T15:05:19Z</time>
      </trkpt>
      <trkpt lat="46.02891" lon="3.77392">
        <ele>743</ele>
        <time>2013-08-21T15:05:19Z</time>
      </trkpt>
      <trkpt lat="46.02903" lon="3.77366">
        <ele>745</ele>
        <time>2013-08-21T15:05:19Z</time>
      </trkpt>
      <trkpt lat="46.02911" lon="3.77334">
        <ele>747</ele>
        <time>2013-08-21T15:05:19Z</time>
      </trkpt>
      <trkpt lat="46.02929" lon="3.77312">
        <ele>745</ele>
        <time>2013-08-21T15:05:19Z</time>
      </trkpt>
      <trkpt lat="46.02977" lon="3.7726">
        <ele>749</ele>
        <time>2013-08-21T15:05:19Z</time>
      </trkpt>
      <trkpt lat="46.03037" lon="3.77229">
        <ele>751</ele>
        <time>2013-08-21T15:05:19Z</time>
      </trkpt>
      <trkpt lat="46.03074" lon="3.77236">
        <ele>755</ele>
        <time>2013-08-21T15:05:19Z</time>
      </trkpt>
      <trkpt lat="46.03153" lon="3.7727">
        <ele>764</ele>
        <time>2013-08-21T15:05:19Z</time>
      </trkpt>
      <trkpt lat="46.03113" lon="3.77286">
        <ele>772</ele>
        <time>2013-08-21T15:05:19Z</time>
      </trkpt>
      <trkpt lat="46.03034" lon="3.77298">
        <ele>771</ele>
        <time>2013-08-21T15:05:19Z</time>
      </trkpt>
      <trkpt lat="46.03014" lon="3.77323">
        <ele>782</ele>
        <time>2013-08-21T15:05:19Z</time>
      </trkpt>
      <trkpt lat="46.03007" lon="3.77342">
        <ele>785</ele>
        <time>2013-08-21T15:05:19Z</time>
      </trkpt>
      <trkpt lat="46.02996" lon="3.77354">
        <ele>787</ele>
        <time>2013-08-21T15:05:19Z</time>
      </trkpt>
      <trkpt lat="46.02984" lon="3.77376">
        <ele>790</ele>
        <time>2013-08-21T15:05:19Z</time>
      </trkpt>
      <trkpt lat="46.02977" lon="3.774">
        <ele>792</ele>
        <time>2013-08-21T15:05:19Z</time>
      </trkpt>
      <trkpt lat="46.02968" lon="3.77437">
        <ele>793</ele>
        <time>2013-08-21T15:05:19Z</time>
      </trkpt>
      <trkpt lat="46.0297" lon="3.77481">
        <ele>795</ele>
        <time>2013-08-21T15:05:19Z</time>
      </trkpt>
      <trkpt lat="46.02962" lon="3.77502">
        <ele>797</ele>
        <time>2013-08-21T15:05:19Z</time>
      </trkpt>
      <trkpt lat="46.02944" lon="3.77584">
        <ele>800</ele>
        <time>2013-08-21T15:05:19Z</time>
      </trkpt>
      <trkpt lat="46.02933" lon="3.77623">
        <ele>803</ele>
        <time>2013-08-21T15:05:19Z</time>
      </trkpt>
      <trkpt lat="46.02935" lon="3.77647">
        <ele>803</ele>
        <time>2013-08-21T15:05:19Z</time>
      </trkpt>
      <trkpt lat="46.0292" lon="3.77688">
        <ele>806</ele>
        <time>2013-08-21T15:05:19Z</time>
      </trkpt>
      <trkpt lat="46.02886" lon="3.77694">
        <ele>807</ele>
        <time>2013-08-21T15:05:19Z</time>
      </trkpt>
      <trkpt lat="46.02869" lon="3.77705">
        <ele>809</ele>
        <time>2013-08-21T15:05:19Z</time>
      </trkpt>
      <trkpt lat="46.02857" lon="3.77721">
        <ele>811</ele>
        <time>2013-08-21T15:05:19Z</time>
      </trkpt>
      <trkpt lat="46.02837" lon="3.7774">
        <ele>810</ele>
        <time>2013-08-21T15:05:19Z</time>
      </trkpt>
      <trkpt lat="46.02807" lon="3.77786">
        <ele>811</ele>
        <time>2013-08-21T15:05:19Z</time>
      </trkpt>
      <trkpt lat="46.02798" lon="3.77848">
        <ele>811</ele>
        <time>2013-08-21T15:05:19Z</time>
      </trkpt>
      <trkpt lat="46.02797" lon="3.77891">
        <ele>811</ele>
        <time>2013-08-21T15:05:19Z</time>
      </trkpt>
      <trkpt lat="46.02798" lon="3.77905">
        <ele>811</ele>
        <time>2013-08-21T15:05:19Z</time>
      </trkpt>
      <trkpt lat="46.02783" lon="3.77962">
        <ele>811</ele>
        <time>2013-08-21T15:05:19Z</time>
      </trkpt>
      <trkpt lat="46.02748" lon="3.7799">
        <ele>807</ele>
        <time>2013-08-21T15:05:19Z</time>
      </trkpt>
      <trkpt lat="46.02732" lon="3.78044">
        <ele>802</ele>
        <time>2013-08-21T15:05:19Z</time>
      </trkpt>
      <trkpt lat="46.02749" lon="3.78105">
        <ele>806</ele>
        <time>2013-08-21T15:05:19Z</time>
      </trkpt>
      <trkpt lat="46.02779" lon="3.78194">
        <ele>799</ele>
        <time>2013-08-21T15:05:19Z</time>
      </trkpt>
      <trkpt lat="46.02798" lon="3.7828">
        <ele>796</ele>
        <time>2013-08-21T15:05:19Z</time>
      </trkpt>
      <trkpt lat="46.02798" lon="3.78302">
        <ele>797</ele>
        <time>2013-08-21T15:05:19Z</time>
      </trkpt>
      <trkpt lat="46.0281" lon="3.78351">
        <ele>797</ele>
        <time>2013-08-21T15:05:19Z</time>
      </trkpt>
      <trkpt lat="46.02817" lon="3.78426">
        <ele>797</ele>
        <time>2013-08-21T15:05:19Z</time>
      </trkpt>
      <trkpt lat="46.02815" lon="3.78465">
        <ele>797</ele>
        <time>2013-08-21T15:05:19Z</time>
      </trkpt>
      <trkpt lat="46.02813" lon="3.78468">
        <ele>798</ele>
        <time>2013-08-21T15:05:19Z</time>
      </trkpt>
      <trkpt lat="46.02818" lon="3.78475">
        <ele>798</ele>
        <time>2013-08-21T15:05:19Z</time>
      </trkpt>
      <trkpt lat="46.02827" lon="3.78519">
        <ele>799</ele>
        <time>2013-08-21T15:05:19Z</time>
      </trkpt>
      <trkpt lat="46.02815" lon="3.78573">
        <ele>801</ele>
        <time>2013-08-21T15:05:19Z</time>
      </trkpt>
      <trkpt lat="46.02816" lon="3.78596">
        <ele>800</ele>
        <time>2013-08-21T15:05:19Z</time>
      </trkpt>
      <trkpt lat="46.02814" lon="3.78617">
        <ele>804</ele>
        <time>2013-08-21T15:05:19Z</time>
      </trkpt>
      <trkpt lat="46.02817" lon="3.78656">
        <ele>807</ele>
        <time>2013-08-21T15:05:19Z</time>
      </trkpt>
      <trkpt lat="46.02809" lon="3.78708">
        <ele>812</ele>
        <time>2013-08-21T15:05:19Z</time>
      </trkpt>
      <trkpt lat="46.02804" lon="3.78719">
        <ele>813</ele>
        <time>2013-08-21T15:05:19Z</time>
      </trkpt>
      <trkpt lat="46.02801" lon="3.78736">
        <ele>815</ele>
        <time>2013-08-21T15:05:19Z</time>
      </trkpt>
      <trkpt lat="46.02789" lon="3.78771">
        <ele>814</ele>
        <time>2013-08-21T15:05:19Z</time>
      </trkpt>
      <trkpt lat="46.02781" lon="3.78804">
        <ele>816</ele>
        <time>2013-08-21T15:05:19Z</time>
      </trkpt>
      <trkpt lat="46.02782" lon="3.78831">
        <ele>829</ele>
        <time>2013-08-21T15:05:19Z</time>
      </trkpt>
      <trkpt lat="46.02783" lon="3.78855">
        <ele>831</ele>
        <time>2013-08-21T15:05:19Z</time>
      </trkpt>
      <trkpt lat="46.02779" lon="3.78874">
        <ele>833</ele>
        <time>2013-08-21T15:05:19Z</time>
      </trkpt>
      <trkpt lat="46.02783" lon="3.78897">
        <ele>836</ele>
        <time>2013-08-21T15:05:19Z</time>
      </trkpt>
      <trkpt lat="46.02783" lon="3.78926">
        <ele>838</ele>
        <time>2013-08-21T15:05:19Z</time>
      </trkpt>
      <trkpt lat="46.02793" lon="3.78954">
        <ele>840</ele>
        <time>2013-08-21T15:05:19Z</time>
      </trkpt>
      <trkpt lat="46.02791" lon="3.79025">
        <ele>846</ele>
        <time>2013-08-21T15:05:19Z</time>
      </trkpt>
      <trkpt lat="46.02786" lon="3.7908">
        <ele>849</ele>
        <time>2013-08-21T15:05:19Z</time>
      </trkpt>
      <trkpt lat="46.02767" lon="3.79125">
        <ele>850</ele>
        <time>2013-08-21T15:05:19Z</time>
      </trkpt>
      <trkpt lat="46.02753" lon="3.79143">
        <ele>850</ele>
        <time>2013-08-21T15:05:19Z</time>
      </trkpt>
      <trkpt lat="46.0276" lon="3.79142">
        <ele>850</ele>
        <time>2013-08-21T15:05:19Z</time>
      </trkpt>
      <trkpt lat="46.02746" lon="3.7917">
        <ele>851</ele>
        <time>2013-08-21T15:05:19Z</time>
      </trkpt>
      <trkpt lat="46.02722" lon="3.79188">
        <ele>852</ele>
        <time>2013-08-21T15:05:19Z</time>
      </trkpt>
      <trkpt lat="46.02703" lon="3.79226">
        <ele>853</ele>
        <time>2013-08-21T15:05:19Z</time>
      </trkpt>
      <trkpt lat="46.02688" lon="3.79252">
        <ele>854</ele>
        <time>2013-08-21T15:05:19Z</time>
      </trkpt>
      <trkpt lat="46.02685" lon="3.79245">
        <ele>854</ele>
        <time>2013-08-21T15:05:19Z</time>
      </trkpt>
      <trkpt lat="46.02677" lon="3.79283">
        <ele>853</ele>
        <time>2013-08-21T15:05:19Z</time>
      </trkpt>
      <trkpt lat="46.02663" lon="3.79396">
        <ele>853</ele>
        <time>2013-08-21T15:05:19Z</time>
      </trkpt>
      <trkpt lat="46.02659" lon="3.79473">
        <ele>855</ele>
        <time>2013-08-21T15:05:19Z</time>
      </trkpt>
      <trkpt lat="46.02662" lon="3.79514">
        <ele>858</ele>
        <time>2013-08-21T15:05:19Z</time>
      </trkpt>
      <trkpt lat="46.02658" lon="3.79538">
        <ele>861</ele>
        <time>2013-08-21T15:05:19Z</time>
      </trkpt>
      <trkpt lat="46.02638" lon="3.79571">
        <ele>864</ele>
        <time>2013-08-21T15:05:19Z</time>
      </trkpt>
      <trkpt lat="46.02631" lon="3.79586">
        <ele>864</ele>
        <time>2013-08-21T15:05:19Z</time>
      </trkpt>
      <trkpt lat="46.02623" lon="3.79675">
        <ele>867</ele>
        <time>2013-08-21T15:05:19Z</time>
      </trkpt>
      <trkpt lat="46.02621" lon="3.7972">
        <ele>867</ele>
        <time>2013-08-21T15:05:19Z</time>
      </trkpt>
      <trkpt lat="46.02624" lon="3.7977">
        <ele>868</ele>
        <time>2013-08-21T15:05:19Z</time>
      </trkpt>
      <trkpt lat="46.02625" lon="3.79796">
        <ele>867</ele>
        <time>2013-08-21T15:05:19Z</time>
      </trkpt>
      <trkpt lat="46.02564" lon="3.79895">
        <ele>866</ele>
        <time>2013-08-21T15:05:19Z</time>
      </trkpt>
      <trkpt lat="46.02556" lon="3.79919">
        <ele>868</ele>
        <time>2013-08-21T15:05:19Z</time>
      </trkpt>
      <trkpt lat="46.02531" lon="3.79969">
        <ele>870</ele>
        <time>2013-08-21T15:05:19Z</time>
      </trkpt>
      <trkpt lat="46.02515" lon="3.79985">
        <ele>872</ele>
        <time>2013-08-21T15:05:19Z</time>
      </trkpt>
      <trkpt lat="46.0248" lon="3.8">
        <ele>877</ele>
        <time>2013-08-21T15:05:19Z</time>
      </trkpt>
      <trkpt lat="46.02465" lon="3.80011">
        <ele>881</ele>
        <time>2013-08-21T15:05:19Z</time>
      </trkpt>
      <trkpt lat="46.02455" lon="3.80022">
        <ele>882</ele>
        <time>2013-08-21T15:05:19Z</time>
      </trkpt>
      <trkpt lat="46.02435" lon="3.80039">
        <ele>883</ele>
        <time>2013-08-21T15:05:19Z</time>
      </trkpt>
      <trkpt lat="46.02364" lon="3.80091">
        <ele>887</ele>
        <time>2013-08-21T15:05:19Z</time>
      </trkpt>
      <trkpt lat="46.02347" lon="3.80112">
        <ele>890</ele>
        <time>2013-08-21T15:05:19Z</time>
      </trkpt>
      <trkpt lat="46.02313" lon="3.80137">
        <ele>895</ele>
        <time>2013-08-21T15:05:19Z</time>
      </trkpt>
      <trkpt lat="46.02257" lon="3.80212">
        <ele>898</ele>
        <time>2013-08-21T15:05:19Z</time>
      </trkpt>
      <trkpt lat="46.02239" lon="3.80223">
        <ele>897</ele>
        <time>2013-08-21T15:05:19Z</time>
      </trkpt>
      <trkpt lat="46.02231" lon="3.80236">
        <ele>897</ele>
        <time>2013-08-21T15:05:19Z</time>
      </trkpt>
      <trkpt lat="46.02223" lon="3.80239">
        <ele>897</ele>
        <time>2013-08-21T15:05:19Z</time>
      </trkpt>
      <trkpt lat="46.02226" lon="3.80254">
        <ele>898</ele>
        <time>2013-08-21T15:05:19Z</time>
      </trkpt>
      <trkpt lat="46.02225" lon="3.80267">
        <ele>898</ele>
        <time>2013-08-21T15:05:19Z</time>
      </trkpt>
      <trkpt lat="46.02221" lon="3.80273">
        <ele>898</ele>
        <time>2013-08-21T15:05:19Z</time>
      </trkpt>
      <trkpt lat="46.0222" lon="3.80292">
        <ele>898</ele>
        <time>2013-08-21T15:05:19Z</time>
      </trkpt>
      <trkpt lat="46.02217" lon="3.80306">
        <ele>898</ele>
        <time>2013-08-21T15:05:19Z</time>
      </trkpt>
      <trkpt lat="46.02215" lon="3.80301">
        <ele>900</ele>
        <time>2013-08-21T15:05:19Z</time>
      </trkpt>
      <trkpt lat="46.02199" lon="3.80306">
        <ele>903</ele>
        <time>2013-08-21T15:05:19Z</time>
      </trkpt>
      <trkpt lat="46.02203" lon="3.80312">
        <ele>904</ele>
        <time>2013-08-21T15:05:19Z</time>
      </trkpt>
      <trkpt lat="46.02188" lon="3.80335">
        <ele>908</ele>
        <time>2013-08-21T15:05:19Z</time>
      </trkpt>
      <trkpt lat="46.02122" lon="3.80366">
        <ele>914</ele>
        <time>2013-08-21T15:05:19Z</time>
      </trkpt>
      <trkpt lat="46.02118" lon="3.8039">
        <ele>915</ele>
        <time>2013-08-21T15:05:19Z</time>
      </trkpt>
      <trkpt lat="46.02115" lon="3.80396">
        <ele>916</ele>
        <time>2013-08-21T15:05:19Z</time>
      </trkpt>
      <trkpt lat="46.02084" lon="3.80405">
        <ele>918</ele>
        <time>2013-08-21T15:05:19Z</time>
      </trkpt>
      <trkpt lat="46.02081" lon="3.80411">
        <ele>918</ele>
        <time>2013-08-21T15:05:19Z</time>
      </trkpt>
      <trkpt lat="46.02077" lon="3.80442">
        <ele>920</ele>
        <time>2013-08-21T15:05:19Z</time>
      </trkpt>
      <trkpt lat="46.02068" lon="3.8045">
        <ele>923</ele>
        <time>2013-08-21T15:05:19Z</time>
      </trkpt>
      <trkpt lat="46.02057" lon="3.80456">
        <ele>924</ele>
        <time>2013-08-21T15:05:19Z</time>
      </trkpt>
      <trkpt lat="46.02047" lon="3.80464">
        <ele>927</ele>
        <time>2013-08-21T15:05:19Z</time>
      </trkpt>
      <trkpt lat="46.02042" lon="3.80466">
        <ele>929</ele>
        <time>2013-08-21T15:05:19Z</time>
      </trkpt>
      <trkpt lat="46.02038" lon="3.80474">
        <ele>929</ele>
        <time>2013-08-21T15:05:19Z</time>
      </trkpt>
      <trkpt lat="46.02039" lon="3.8048">
        <ele>930</ele>
        <time>2013-08-21T15:05:19Z</time>
      </trkpt>
      <trkpt lat="46.02027" lon="3.80465">
        <ele>934</ele>
        <time>2013-08-21T15:05:19Z</time>
      </trkpt>
      <trkpt lat="46.02007" lon="3.8047">
        <ele>937</ele>
        <time>2013-08-21T15:05:19Z</time>
      </trkpt>
      <trkpt lat="46.01992" lon="3.80477">
        <ele>938</ele>
        <time>2013-08-21T15:05:19Z</time>
      </trkpt>
      <trkpt lat="46.01991" lon="3.80485">
        <ele>939</ele>
        <time>2013-08-21T15:05:19Z</time>
      </trkpt>
      <trkpt lat="46.01987" lon="3.80485">
        <ele>939</ele>
        <time>2013-08-21T15:05:19Z</time>
      </trkpt>
      <trkpt lat="46.01952" lon="3.80503">
        <ele>942</ele>
        <time>2013-08-21T15:05:19Z</time>
      </trkpt>
      <trkpt lat="46.01934" lon="3.80508">
        <ele>944</ele>
        <time>2013-08-21T15:05:19Z</time>
      </trkpt>
      <trkpt lat="46.01912" lon="3.80532">
        <ele>948</ele>
        <time>2013-08-21T15:05:19Z</time>
      </trkpt>
      <trkpt lat="46.01892" lon="3.80536">
        <ele>949</ele>
        <time>2013-08-21T15:05:19Z</time>
      </trkpt>
      <trkpt lat="46.0186" lon="3.80564">
        <ele>954</ele>
        <time>2013-08-21T15:05:19Z</time>
      </trkpt>
      <trkpt lat="46.0185" lon="3.80584">
        <ele>955</ele>
        <time>2013-08-21T15:05:19Z</time>
      </trkpt>
      <trkpt lat="46.01828" lon="3.80595">
        <ele>959</ele>
        <time>2013-08-21T15:05:19Z</time>
      </trkpt>
      <trkpt lat="46.01814" lon="3.80611">
        <ele>960</ele>
        <time>2013-08-21T15:05:19Z</time>
      </trkpt>
      <trkpt lat="46.01796" lon="3.80654">
        <ele>963</ele>
        <time>2013-08-21T15:05:19Z</time>
      </trkpt>
      <trkpt lat="46.01767" lon="3.80707">
        <ele>967</ele>
        <time>2013-08-21T15:05:19Z</time>
      </trkpt>
      <trkpt lat="46.01736" lon="3.80753">
        <ele>971</ele>
        <time>2013-08-21T15:05:19Z</time>
      </trkpt>
      <trkpt lat="46.01705" lon="3.80778">
        <ele>975</ele>
        <time>2013-08-21T15:05:19Z</time>
      </trkpt>
      <trkpt lat="46.01676" lon="3.80791">
        <ele>978</ele>
        <time>2013-08-21T15:05:19Z</time>
      </trkpt>
      <trkpt lat="46.0166" lon="3.80806">
        <ele>980</ele>
        <time>2013-08-21T15:05:19Z</time>
      </trkpt>
      <trkpt lat="46.0161" lon="3.80831">
        <ele>984</ele>
        <time>2013-08-21T15:05:19Z</time>
      </trkpt>
      <trkpt lat="46.01586" lon="3.80854">
        <ele>986</ele>
        <time>2013-08-21T15:05:19Z</time>
      </trkpt>
      <trkpt lat="46.01543" lon="3.80884">
        <ele>989</ele>
        <time>2013-08-21T15:05:19Z</time>
      </trkpt>
      <trkpt lat="46.01433" lon="3.80931">
        <ele>1000</ele>
        <time>2013-08-21T15:05:19Z</time>
      </trkpt>
      <trkpt lat="46.01412" lon="3.80931">
        <ele>1002</ele>
        <time>2013-08-21T15:05:19Z</time>
      </trkpt>
      <trkpt lat="46.01388" lon="3.80939">
        <ele>1004</ele>
        <time>2013-08-21T15:05:19Z</time>
      </trkpt>
      <trkpt lat="46.01332" lon="3.80967">
        <ele>1007</ele>
        <time>2013-08-21T15:05:19Z</time>
      </trkpt>
      <trkpt lat="46.01317" lon="3.8098">
        <ele>1008</ele>
        <time>2013-08-21T15:05:19Z</time>
      </trkpt>
      <trkpt lat="46.01307" lon="3.80982">
        <ele>1007</ele>
        <time>2013-08-21T15:05:19Z</time>
      </trkpt>
      <trkpt lat="46.01234" lon="3.80969">
        <ele>1006</ele>
        <time>2013-08-21T15:05:19Z</time>
      </trkpt>
      <trkpt lat="46.0121" lon="3.80955">
        <ele>1008</ele>
        <time>2013-08-21T15:05:19Z</time>
      </trkpt>
      <trkpt lat="46.01191" lon="3.80953">
        <ele>1008</ele>
        <time>2013-08-21T15:05:19Z</time>
      </trkpt>
      <trkpt lat="46.01001" lon="3.80971">
        <ele>1015</ele>
        <time>2013-08-21T15:05:19Z</time>
      </trkpt>
      <trkpt lat="46.00982" lon="3.8097">
        <ele>1015</ele>
        <time>2013-08-21T15:05:19Z</time>
      </trkpt>
      <trkpt lat="46.00943" lon="3.80974">
        <ele>1017</ele>
        <time>2013-08-21T15:05:19Z</time>
      </trkpt>
      <trkpt lat="46.00904" lon="3.80972">
        <ele>1018</ele>
        <time>2013-08-21T15:05:19Z</time>
      </trkpt>
      <trkpt lat="46.00845" lon="3.80969">
        <ele>1019</ele>
        <time>2013-08-21T15:05:19Z</time>
      </trkpt>
      <trkpt lat="46.00804" lon="3.80985">
        <ele>1019</ele>
        <time>2013-08-21T15:05:19Z</time>
      </trkpt>
      <trkpt lat="46.00757" lon="3.80995">
        <ele>1019</ele>
        <time>2013-08-21T15:05:19Z</time>
      </trkpt>
      <trkpt lat="46.00746" lon="3.8101">
        <ele>1021</ele>
        <time>2013-08-21T15:05:19Z</time>
      </trkpt>
      <trkpt lat="46.00749" lon="3.81033">
        <ele>1020</ele>
        <time>2013-08-21T15:05:19Z</time>
      </trkpt>
      <trkpt lat="46.00744" lon="3.81064">
        <ele>1022</ele>
        <time>2013-08-21T15:05:19Z</time>
      </trkpt>
      <trkpt lat="46.00753" lon="3.81088">
        <ele>1025</ele>
        <time>2013-08-21T15:05:19Z</time>
      </trkpt>
      <trkpt lat="46.00742" lon="3.81121">
        <ele>1028</ele>
        <time>2013-08-21T15:05:19Z</time>
      </trkpt>
      <trkpt lat="46.00725" lon="3.81131">
        <ele>1028</ele>
        <time>2013-08-21T15:05:19Z</time>
      </trkpt>
      <trkpt lat="46.00695" lon="3.81129">
        <ele>1029</ele>
        <time>2013-08-21T15:05:19Z</time>
      </trkpt>
      <trkpt lat="46.00646" lon="3.8112">
        <ele>1031</ele>
        <time>2013-08-21T15:05:19Z</time>
      </trkpt>
      <trkpt lat="46.00621" lon="3.81119">
        <ele>1032</ele>
        <time>2013-08-21T15:05:19Z</time>
      </trkpt>
      <trkpt lat="46.00594" lon="3.81128">
        <ele>1033</ele>
        <time>2013-08-21T15:05:19Z</time>
      </trkpt>
      <trkpt lat="46.00582" lon="3.81136">
        <ele>1033</ele>
        <time>2013-08-21T15:05:19Z</time>
      </trkpt>
      <trkpt lat="46.00531" lon="3.81182">
        <ele>1035</ele>
        <time>2013-08-21T15:05:19Z</time>
      </trkpt>
      <trkpt lat="46.00488" lon="3.81213">
        <ele>1036</ele>
        <time>2013-08-21T15:05:19Z</time>
      </trkpt>
      <trkpt lat="46.00438" lon="3.81266">
        <ele>1038</ele>
        <time>2013-08-21T15:05:19Z</time>
      </trkpt>
      <trkpt lat="46.00389" lon="3.81283">
        <ele>1039</ele>
        <time>2013-08-21T15:05:19Z</time>
      </trkpt>
      <trkpt lat="46.00387" lon="3.81293">
        <ele>1040</ele>
        <time>2013-08-21T15:05:19Z</time>
      </trkpt>
      <trkpt lat="46.00355" lon="3.81317">
        <ele>1041</ele>
        <time>2013-08-21T15:05:19Z</time>
      </trkpt>
      <trkpt lat="46.00316" lon="3.81374">
        <ele>1042</ele>
        <time>2013-08-21T15:05:19Z</time>
      </trkpt>
      <trkpt lat="46.00296" lon="3.81414">
        <ele>1043</ele>
        <time>2013-08-21T15:05:19Z</time>
      </trkpt>
      <trkpt lat="46.0029" lon="3.8143">
        <ele>1044</ele>
        <time>2013-08-21T15:05:19Z</time>
      </trkpt>
      <trkpt lat="46.00287" lon="3.81468">
        <ele>1046</ele>
        <time>2013-08-21T15:05:19Z</time>
      </trkpt>
      <trkpt lat="46.00283" lon="3.81481">
        <ele>1046</ele>
        <time>2013-08-21T15:05:19Z</time>
      </trkpt>
      <trkpt lat="46.00281" lon="3.81495">
        <ele>1046</ele>
        <time>2013-08-21T15:05:19Z</time>
      </trkpt>
      <trkpt lat="46.00263" lon="3.81552">
        <ele>1047</ele>
        <time>2013-08-21T15:05:19Z</time>
      </trkpt>
      <trkpt lat="46.0025" lon="3.81588">
        <ele>1048</ele>
        <time>2013-08-21T15:05:19Z</time>
      </trkpt>
      <trkpt lat="46.00243" lon="3.81594">
        <ele>1048</ele>
        <time>2013-08-21T15:05:19Z</time>
      </trkpt>
      <trkpt lat="46.00246" lon="3.81614">
        <ele>1049</ele>
        <time>2013-08-21T15:05:19Z</time>
      </trkpt>
      <trkpt lat="46.00239" lon="3.81621">
        <ele>1049</ele>
        <time>2013-08-21T15:05:19Z</time>
      </trkpt>
      <trkpt lat="46.00234" lon="3.8167">
        <ele>1049</ele>
        <time>2013-08-21T15:05:19Z</time>
      </trkpt>
      <trkpt lat="46.00228" lon="3.81696">
        <ele>1049</ele>
        <time>2013-08-21T15:05:19Z</time>
      </trkpt>
      <trkpt lat="46.00229" lon="3.81717">
        <ele>1050</ele>
        <time>2013-08-21T15:05:19Z</time>
      </trkpt>
      <trkpt lat="46.00227" lon="3.81729">
        <ele>1049</ele>
        <time>2013-08-21T15:05:19Z</time>
      </trkpt>
      <trkpt lat="46.00209" lon="3.81773">
        <ele>1053</ele>
        <time>2013-08-21T15:05:19Z</time>
      </trkpt>
      <trkpt lat="46.0019" lon="3.81831">
        <ele>1053</ele>
        <time>2013-08-21T15:05:19Z</time>
      </trkpt>
      <trkpt lat="46.00181" lon="3.8187">
        <ele>1055</ele>
        <time>2013-08-21T15:05:19Z</time>
      </trkpt>
      <trkpt lat="46.00173" lon="3.81887">
        <ele>1055</ele>
        <time>2013-08-21T15:05:19Z</time>
      </trkpt>
      <trkpt lat="46.00172" lon="3.81908">
        <ele>1055</ele>
        <time>2013-08-21T15:05:19Z</time>
      </trkpt>
      <trkpt lat="46.00173" lon="3.81938">
        <ele>1057</ele>
        <time>2013-08-21T15:05:19Z</time>
      </trkpt>
      <trkpt lat="46.00176" lon="3.81935">
        <ele>1057</ele>
        <time>2013-08-21T15:05:19Z</time>
      </trkpt>
      <trkpt lat="46.00146" lon="3.81989">
        <ele>1059</ele>
        <time>2013-08-21T15:05:19Z</time>
      </trkpt>
      <trkpt lat="46.00138" lon="3.82049">
        <ele>1061</ele>
        <time>2013-08-21T15:05:19Z</time>
      </trkpt>
      <trkpt lat="46.00135" lon="3.82135">
        <ele>1063</ele>
        <time>2013-08-21T15:05:19Z</time>
      </trkpt>
      <trkpt lat="46.00108" lon="3.82237">
        <ele>1065</ele>
        <time>2013-08-21T15:05:19Z</time>
      </trkpt>
      <trkpt lat="46.00076" lon="3.82335">
        <ele>1063</ele>
        <time>2013-08-21T15:05:19Z</time>
      </trkpt>
      <trkpt lat="46.00074" lon="3.82377">
        <ele>1061</ele>
        <time>2013-08-21T15:05:19Z</time>
      </trkpt>
      <trkpt lat="46.00062" lon="3.82431">
        <ele>1060</ele>
        <time>2013-08-21T15:05:19Z</time>
      </trkpt>
      <trkpt lat="46.0006" lon="3.82521">
        <ele>1059</ele>
        <time>2013-08-21T15:05:19Z</time>
      </trkpt>
      <trkpt lat="46.00072" lon="3.82584">
        <ele>1059</ele>
        <time>2013-08-21T15:05:19Z</time>
      </trkpt>
      <trkpt lat="46.00059" lon="3.82593">
        <ele>1058</ele>
        <time>2013-08-21T15:05:19Z</time>
      </trkpt>
      <trkpt lat="46.00053" lon="3.82595">
        <ele>1058</ele>
        <time>2013-08-21T15:05:19Z</time>
      </trkpt>
      <trkpt lat="46.00043" lon="3.82608">
        <ele>1058</ele>
        <time>2013-08-21T15:05:19Z</time>
      </trkpt>
      <trkpt lat="46.00005" lon="3.82687">
        <ele>1057</ele>
        <time>2013-08-21T15:05:19Z</time>
      </trkpt>
      <trkpt lat="45.99991" lon="3.82766">
        <ele>1056</ele>
        <time>2013-08-21T15:05:19Z</time>
      </trkpt>
      <trkpt lat="45.99991" lon="3.8282">
        <ele>1054</ele>
        <time>2013-08-21T15:05:19Z</time>
      </trkpt>
      <trkpt lat="45.99997" lon="3.82919">
        <ele>1048</ele>
        <time>2013-08-21T15:05:19Z</time>
      </trkpt>
      <trkpt lat="46.00011" lon="3.82978">
        <ele>1043</ele>
        <time>2013-08-21T15:05:19Z</time>
      </trkpt>
      <trkpt lat="46.00001" lon="3.83077">
        <ele>1041</ele>
        <time>2013-08-21T15:05:19Z</time>
      </trkpt>
      <trkpt lat="46.00011" lon="3.83128">
        <ele>1041</ele>
        <time>2013-08-21T15:05:19Z</time>
      </trkpt>
      <trkpt lat="45.99998" lon="3.83169">
        <ele>1041</ele>
        <time>2013-08-21T15:05:19Z</time>
      </trkpt>
      <trkpt lat="46.00031" lon="3.83264">
        <ele>1046</ele>
        <time>2013-08-21T15:05:19Z</time>
      </trkpt>
      <trkpt lat="46.00045" lon="3.83315">
        <ele>1048</ele>
        <time>2013-08-21T15:05:19Z</time>
      </trkpt>
      <trkpt lat="46.00046" lon="3.83371">
        <ele>1049</ele>
        <time>2013-08-21T15:05:19Z</time>
      </trkpt>
      <trkpt lat="46.00041" lon="3.83459">
        <ele>1052</ele>
        <time>2013-08-21T15:05:19Z</time>
      </trkpt>
      <trkpt lat="46.00036" lon="3.8351">
        <ele>1054</ele>
        <time>2013-08-21T15:05:19Z</time>
      </trkpt>
      <trkpt lat="46.00041" lon="3.83608">
        <ele>1056</ele>
        <time>2013-08-21T15:05:19Z</time>
      </trkpt>
      <trkpt lat="46.00025" lon="3.83671">
        <ele>1059</ele>
        <time>2013-08-21T15:05:19Z</time>
      </trkpt>
      <trkpt lat="46.00019" lon="3.83779">
        <ele>1061</ele>
        <time>2013-08-21T15:05:19Z</time>
      </trkpt>
      <trkpt lat="46.00021" lon="3.83828">
        <ele>1062</ele>
        <time>2013-08-21T15:05:19Z</time>
      </trkpt>
      <trkpt lat="46.00028" lon="3.83919">
        <ele>1065</ele>
        <time>2013-08-21T15:05:19Z</time>
      </trkpt>
      <trkpt lat="46.00042" lon="3.84004">
        <ele>1066</ele>
        <time>2013-08-21T15:05:19Z</time>
      </trkpt>
      <trkpt lat="46.00071" lon="3.84143">
        <ele>1069</ele>
        <time>2013-08-21T15:05:19Z</time>
      </trkpt>
      <trkpt lat="46.0008" lon="3.84176">
        <ele>1070</ele>
        <time>2013-08-21T15:05:19Z</time>
      </trkpt>
      <trkpt lat="46.00124" lon="3.84038">
        <ele>1073</ele>
        <time>2013-08-21T15:05:19Z</time>
      </trkpt>
      <trkpt lat="46.00171" lon="3.83913">
        <ele>1079</ele>
        <time>2013-08-21T15:05:19Z</time>
      </trkpt>
      <trkpt lat="46.00235" lon="3.83702">
        <ele>1078</ele>
        <time>2013-08-21T15:05:19Z</time>
      </trkpt>
      <trkpt lat="46.00328" lon="3.83598">
        <ele>1072</ele>
        <time>2013-08-21T15:05:19Z</time>
      </trkpt>
      <trkpt lat="46.00428" lon="3.83559">
        <ele>1064</ele>
        <time>2013-08-21T15:05:19Z</time>
      </trkpt>
      <trkpt lat="46.00536" lon="3.83552">
        <ele>1053</ele>
        <time>2013-08-21T15:05:19Z</time>
      </trkpt>
      <trkpt lat="46.00581" lon="3.83563">
        <ele>1052</ele>
        <time>2013-08-21T15:05:19Z</time>
      </trkpt>
      <trkpt lat="46.006" lon="3.83602">
        <ele>1059</ele>
        <time>2013-08-21T15:05:19Z</time>
      </trkpt>
      <trkpt lat="46.006" lon="3.83596">
        <ele>1059</ele>
        <time>2013-08-21T15:05:19Z</time>
      </trkpt>
      <trkpt lat="46.00634" lon="3.83581">
        <ele>1059</ele>
        <time>2013-08-21T15:05:19Z</time>
      </trkpt>
      <trkpt lat="46.00655" lon="3.83552">
        <ele>1060</ele>
        <time>2013-08-21T15:05:19Z</time>
      </trkpt>
      <trkpt lat="46.00669" lon="3.83512">
        <ele>1064</ele>
        <time>2013-08-21T15:05:19Z</time>
      </trkpt>
      <trkpt lat="46.00712" lon="3.83433">
        <ele>1068</ele>
        <time>2013-08-21T15:05:19Z</time>
      </trkpt>
      <trkpt lat="46.00773" lon="3.834">
        <ele>1069</ele>
        <time>2013-08-21T15:05:19Z</time>
      </trkpt>
      <trkpt lat="46.00809" lon="3.83377">
        <ele>1069</ele>
        <time>2013-08-21T15:05:19Z</time>
      </trkpt>
      <trkpt lat="46.00876" lon="3.83294">
        <ele>1072</ele>
        <time>2013-08-21T15:05:19Z</time>
      </trkpt>
      <trkpt lat="46.00898" lon="3.83259">
        <ele>1075</ele>
        <time>2013-08-21T15:05:19Z</time>
      </trkpt>
      <trkpt lat="46.00915" lon="3.83211">
        <ele>1077</ele>
        <time>2013-08-21T15:05:19Z</time>
      </trkpt>
      <trkpt lat="46.00924" lon="3.83167">
        <ele>1078</ele>
        <time>2013-08-21T15:05:19Z</time>
      </trkpt>
      <trkpt lat="46.00952" lon="3.83059">
        <ele>1082</ele>
        <time>2013-08-21T15:05:19Z</time>
      </trkpt>
      <trkpt lat="46.00969" lon="3.82998">
        <ele>1083</ele>
        <time>2013-08-21T15:05:19Z</time>
      </trkpt>
      <trkpt lat="46.00987" lon="3.82942">
        <ele>1085</ele>
        <time>2013-08-21T15:05:19Z</time>
      </trkpt>
      <trkpt lat="46.00994" lon="3.82929">
        <ele>1085</ele>
        <time>2013-08-21T15:05:19Z</time>
      </trkpt>
      <trkpt lat="46.01034" lon="3.82918">
        <ele>1085</ele>
        <time>2013-08-21T15:05:19Z</time>
      </trkpt>
      <trkpt lat="46.0109" lon="3.82929">
        <ele>1085</ele>
        <time>2013-08-21T15:05:19Z</time>
      </trkpt>
      <trkpt lat="46.01126" lon="3.82922">
        <ele>1085</ele>
        <time>2013-08-21T15:05:19Z</time>
      </trkpt>
      <trkpt lat="46.0125" lon="3.82917">
        <ele>1080</ele>
        <time>2013-08-21T15:05:19Z</time>
      </trkpt>
      <trkpt lat="46.0136" lon="3.82934">
        <ele>1074</ele>
        <time>2013-08-21T15:05:19Z</time>
      </trkpt>
      <trkpt lat="46.01379" lon="3.82945">
        <ele>1074</ele>
        <time>2013-08-21T15:05:19Z</time>
      </trkpt>
      <trkpt lat="46.01461" lon="3.82927">
        <ele>1062</ele>
        <time>2013-08-21T15:05:19Z</time>
      </trkpt>
      <trkpt lat="46.0149" lon="3.82919">
        <ele>1063</ele>
        <time>2013-08-21T15:05:19Z</time>
      </trkpt>
      <trkpt lat="46.01565" lon="3.82934">
        <ele>1048</ele>
        <time>2013-08-21T15:05:19Z</time>
      </trkpt>
      <trkpt lat="46.01655" lon="3.82932">
        <ele>1035</ele>
        <time>2013-08-21T15:05:19Z</time>
      </trkpt>
      <trkpt lat="46.01692" lon="3.82939">
        <ele>1031</ele>
        <time>2013-08-21T15:05:19Z</time>
      </trkpt>
      <trkpt lat="46.01767" lon="3.82933">
        <ele>1026</ele>
        <time>2013-08-21T15:05:19Z</time>
      </trkpt>
      <trkpt lat="46.01779" lon="3.8293">
        <ele>1026</ele>
        <time>2013-08-21T15:05:19Z</time>
      </trkpt>
      <trkpt lat="46.01781" lon="3.82923">
        <ele>1022</ele>
        <time>2013-08-21T15:05:19Z</time>
      </trkpt>
      <trkpt lat="46.01804" lon="3.82887">
        <ele>1020</ele>
        <time>2013-08-21T15:05:19Z</time>
      </trkpt>
      <trkpt lat="46.01809" lon="3.82877">
        <ele>1019</ele>
        <time>2013-08-21T15:05:19Z</time>
      </trkpt>
      <trkpt lat="46.01818" lon="3.82869">
        <ele>1016</ele>
        <time>2013-08-21T15:05:19Z</time>
      </trkpt>
      <trkpt lat="46.01936" lon="3.82873">
        <ele>1003</ele>
        <time>2013-08-21T15:05:19Z</time>
      </trkpt>
      <trkpt lat="46.01955" lon="3.82876">
        <ele>1004</ele>
        <time>2013-08-21T15:05:19Z</time>
      </trkpt>
      <trkpt lat="46.01992" lon="3.82875">
        <ele>1001</ele>
        <time>2013-08-21T15:05:19Z</time>
      </trkpt>
      <trkpt lat="46.02076" lon="3.82884">
        <ele>990</ele>
        <time>2013-08-21T15:05:19Z</time>
      </trkpt>
      <trkpt lat="46.02112" lon="3.82856">
        <ele>983</ele>
        <time>2013-08-21T15:05:19Z</time>
      </trkpt>
      <trkpt lat="46.02135" lon="3.82852">
        <ele>979</ele>
        <time>2013-08-21T15:05:19Z</time>
      </trkpt>
      <trkpt lat="46.02157" lon="3.82866">
        <ele>973</ele>
        <time>2013-08-21T15:05:19Z</time>
      </trkpt>
      <trkpt lat="46.02185" lon="3.82932">
        <ele>957</ele>
        <time>2013-08-21T15:05:19Z</time>
      </trkpt>
      <trkpt lat="46.02201" lon="3.82958">
        <ele>950</ele>
        <time>2013-08-21T15:05:19Z</time>
      </trkpt>
      <trkpt lat="46.02214" lon="3.82986">
        <ele>945</ele>
        <time>2013-08-21T15:05:19Z</time>
      </trkpt>
      <trkpt lat="46.02296" lon="3.83143">
        <ele>925</ele>
        <time>2013-08-21T15:05:19Z</time>
      </trkpt>
      <trkpt lat="46.02326" lon="3.83219">
        <ele>920</ele>
        <time>2013-08-21T15:05:19Z</time>
      </trkpt>
      <trkpt lat="46.0237" lon="3.83245">
        <ele>914</ele>
        <time>2013-08-21T15:05:19Z</time>
      </trkpt>
      <trkpt lat="46.02385" lon="3.83258">
        <ele>914</ele>
        <time>2013-08-21T15:05:19Z</time>
      </trkpt>
      <trkpt lat="46.02369" lon="3.83204">
        <ele>916</ele>
        <time>2013-08-21T15:05:19Z</time>
      </trkpt>
      <trkpt lat="46.02345" lon="3.83224">
        <ele>909</ele>
        <time>2013-08-21T15:05:19Z</time>
      </trkpt>
      <trkpt lat="46.02367" lon="3.83215">
        <ele>917</ele>
        <time>2013-08-21T15:05:19Z</time>
      </trkpt>
      <trkpt lat="46.02346" lon="3.83182">
        <ele>918</ele>
        <time>2013-08-21T15:05:19Z</time>
      </trkpt>
      <trkpt lat="46.02343" lon="3.83168">
        <ele>920</ele>
        <time>2013-08-21T15:05:19Z</time>
      </trkpt>
      <trkpt lat="46.02307" lon="3.83123">
        <ele>921</ele>
        <time>2013-08-21T15:05:19Z</time>
      </trkpt>
      <trkpt lat="46.02288" lon="3.83082">
        <ele>928</ele>
        <time>2013-08-21T15:05:19Z</time>
      </trkpt>
      <trkpt lat="46.02267" lon="3.8306">
        <ele>933</ele>
        <time>2013-08-21T15:05:19Z</time>
      </trkpt>
      <trkpt lat="46.02271" lon="3.83013">
        <ele>937</ele>
        <time>2013-08-21T15:05:19Z</time>
      </trkpt>
      <trkpt lat="46.02263" lon="3.82992">
        <ele>937</ele>
        <time>2013-08-21T15:05:19Z</time>
      </trkpt>
      <trkpt lat="46.02259" lon="3.82968">
        <ele>938</ele>
        <time>2013-08-21T15:05:19Z</time>
      </trkpt>
      <trkpt lat="46.02257" lon="3.82949">
        <ele>940</ele>
        <time>2013-08-21T15:05:19Z</time>
      </trkpt>
      <trkpt lat="46.02258" lon="3.82892">
        <ele>947</ele>
        <time>2013-08-21T15:05:19Z</time>
      </trkpt>
      <trkpt lat="46.02248" lon="3.82851">
        <ele>949</ele>
        <time>2013-08-21T15:05:19Z</time>
      </trkpt>
      <trkpt lat="46.02251" lon="3.82819">
        <ele>949</ele>
        <time>2013-08-21T15:05:19Z</time>
      </trkpt>
      <trkpt lat="46.02248" lon="3.82803">
        <ele>949</ele>
        <time>2013-08-21T15:05:19Z</time>
      </trkpt>
      <trkpt lat="46.02228" lon="3.82746">
        <ele>952</ele>
        <time>2013-08-21T15:05:19Z</time>
      </trkpt>
      <trkpt lat="46.02218" lon="3.82737">
        <ele>953</ele>
        <time>2013-08-21T15:05:19Z</time>
      </trkpt>
      <trkpt lat="46.02208" lon="3.82722">
        <ele>956</ele>
        <time>2013-08-21T15:05:19Z</time>
      </trkpt>
      <trkpt lat="46.02186" lon="3.82681">
        <ele>955</ele>
        <time>2013-08-21T15:05:19Z</time>
      </trkpt>
      <trkpt lat="46.02067" lon="3.82648">
        <ele>952</ele>
        <time>2013-08-21T15:05:19Z</time>
      </trkpt>
      <trkpt lat="46.02016" lon="3.82641">
        <ele>954</ele>
        <time>2013-08-21T15:05:19Z</time>
      </trkpt>
      <trkpt lat="46.01987" lon="3.82634">
        <ele>953</ele>
        <time>2013-08-21T15:05:19Z</time>
      </trkpt>
      <trkpt lat="46.01966" lon="3.82633">
        <ele>952</ele>
        <time>2013-08-21T15:05:19Z</time>
      </trkpt>
      <trkpt lat="46.01913" lon="3.82627">
        <ele>947</ele>
        <time>2013-08-21T15:05:19Z</time>
      </trkpt>
      <trkpt lat="46.01809" lon="3.82602">
        <ele>944</ele>
        <time>2013-08-21T15:05:19Z</time>
      </trkpt>
      <trkpt lat="46.01786" lon="3.82586">
        <ele>941</ele>
        <time>2013-08-21T15:05:19Z</time>
      </trkpt>
      <trkpt lat="46.01744" lon="3.8254">
        <ele>945</ele>
        <time>2013-08-21T15:05:19Z</time>
      </trkpt>
      <trkpt lat="46.01734" lon="3.82536">
        <ele>949</ele>
        <time>2013-08-21T15:05:19Z</time>
      </trkpt>
      <trkpt lat="46.01733" lon="3.82527">
        <ele>951</ele>
        <time>2013-08-21T15:05:19Z</time>
      </trkpt>
      <trkpt lat="46.01719" lon="3.82526">
        <ele>954</ele>
        <time>2013-08-21T15:05:19Z</time>
      </trkpt>
      <trkpt lat="46.01723" lon="3.82519">
        <ele>956</ele>
        <time>2013-08-21T15:05:19Z</time>
      </trkpt>
      <trkpt lat="46.01725" lon="3.82502">
        <ele>959</ele>
        <time>2013-08-21T15:05:19Z</time>
      </trkpt>
      <trkpt lat="46.01729" lon="3.82481">
        <ele>960</ele>
        <time>2013-08-21T15:05:19Z</time>
      </trkpt>
      <trkpt lat="46.01757" lon="3.82439">
        <ele>963</ele>
        <time>2013-08-21T15:05:19Z</time>
      </trkpt>
      <trkpt lat="46.018" lon="3.82389">
        <ele>966</ele>
        <time>2013-08-21T15:05:19Z</time>
      </trkpt>
      <trkpt lat="46.0182" lon="3.8236">
        <ele>969</ele>
        <time>2013-08-21T15:05:19Z</time>
      </trkpt>
      <trkpt lat="46.01838" lon="3.82292">
        <ele>973</ele>
        <time>2013-08-21T15:05:19Z</time>
      </trkpt>
      <trkpt lat="46.01841" lon="3.82288">
        <ele>974</ele>
        <time>2013-08-21T15:05:19Z</time>
      </trkpt>
      <trkpt lat="46.01847" lon="3.82245">
        <ele>977</ele>
        <time>2013-08-21T15:05:19Z</time>
      </trkpt>
      <trkpt lat="46.01858" lon="3.82235">
        <ele>978</ele>
        <time>2013-08-21T15:05:19Z</time>
      </trkpt>
      <trkpt lat="46.01893" lon="3.8223">
        <ele>981</ele>
        <time>2013-08-21T15:05:19Z</time>
      </trkpt>
      <trkpt lat="46.01895" lon="3.82226">
        <ele>982</ele>
        <time>2013-08-21T15:05:19Z</time>
      </trkpt>
      <trkpt lat="46.01916" lon="3.82214">
        <ele>984</ele>
        <time>2013-08-21T15:05:19Z</time>
      </trkpt>
      <trkpt lat="46.01915" lon="3.82179">
        <ele>985</ele>
        <time>2013-08-21T15:05:19Z</time>
      </trkpt>
      <trkpt lat="46.01942" lon="3.82145">
        <ele>988</ele>
        <time>2013-08-21T15:05:19Z</time>
      </trkpt>
      <trkpt lat="46.01977" lon="3.82086">
        <ele>993</ele>
        <time>2013-08-21T15:05:19Z</time>
      </trkpt>
      <trkpt lat="46.01995" lon="3.82046">
        <ele>996</ele>
        <time>2013-08-21T15:05:19Z</time>
      </trkpt>
      <trkpt lat="46.02004" lon="3.82019">
        <ele>998</ele>
        <time>2013-08-21T15:05:19Z</time>
      </trkpt>
      <trkpt lat="46.02023" lon="3.81991">
        <ele>999</ele>
        <time>2013-08-21T15:05:19Z</time>
      </trkpt>
      <trkpt lat="46.02031" lon="3.81948">
        <ele>1001</ele>
        <time>2013-08-21T15:05:19Z</time>
      </trkpt>
      <trkpt lat="46.02062" lon="3.81911">
        <ele>1004</ele>
        <time>2013-08-21T15:05:19Z</time>
      </trkpt>
      <trkpt lat="46.02096" lon="3.81892">
        <ele>1007</ele>
        <time>2013-08-21T15:05:19Z</time>
      </trkpt>
      <trkpt lat="46.02115" lon="3.81872">
        <ele>1009</ele>
        <time>2013-08-21T15:05:19Z</time>
      </trkpt>
      <trkpt lat="46.0217" lon="3.81827">
        <ele>1011</ele>
        <time>2013-08-21T15:05:19Z</time>
      </trkpt>
      <trkpt lat="46.02194" lon="3.81784">
        <ele>1014</ele>
        <time>2013-08-21T15:05:19Z</time>
      </trkpt>
      <trkpt lat="46.02198" lon="3.81773">
        <ele>1015</ele>
        <time>2013-08-21T15:05:19Z</time>
      </trkpt>
      <trkpt lat="46.02227" lon="3.81751">
        <ele>1018</ele>
        <time>2013-08-21T15:05:19Z</time>
      </trkpt>
      <trkpt lat="46.02241" lon="3.81734">
        <ele>1020</ele>
        <time>2013-08-21T15:05:19Z</time>
      </trkpt>
      <trkpt lat="46.02264" lon="3.81722">
        <ele>1022</ele>
        <time>2013-08-21T15:05:19Z</time>
      </trkpt>
      <trkpt lat="46.0229" lon="3.81702">
        <ele>1025</ele>
        <time>2013-08-21T15:05:19Z</time>
      </trkpt>
      <trkpt lat="46.02308" lon="3.81653">
        <ele>1028</ele>
        <time>2013-08-21T15:05:19Z</time>
      </trkpt>
      <trkpt lat="46.02317" lon="3.8164">
        <ele>1029</ele>
        <time>2013-08-21T15:05:19Z</time>
      </trkpt>
      <trkpt lat="46.02353" lon="3.81603">
        <ele>1033</ele>
        <time>2013-08-21T15:05:19Z</time>
      </trkpt>
      <trkpt lat="46.0238" lon="3.81583">
        <ele>1035</ele>
        <time>2013-08-21T15:05:19Z</time>
      </trkpt>
      <trkpt lat="46.0241" lon="3.81564">
        <ele>1036</ele>
        <time>2013-08-21T15:05:19Z</time>
      </trkpt>
      <trkpt lat="46.02433" lon="3.81536">
        <ele>1036</ele>
        <time>2013-08-21T15:05:19Z</time>
      </trkpt>
      <trkpt lat="46.02441" lon="3.81521">
        <ele>1036</ele>
        <time>2013-08-21T15:05:19Z</time>
      </trkpt>
      <trkpt lat="46.02451" lon="3.8152">
        <ele>1035</ele>
        <time>2013-08-21T15:05:19Z</time>
      </trkpt>
      <trkpt lat="46.02455" lon="3.81517">
        <ele>1035</ele>
        <time>2013-08-21T15:05:19Z</time>
      </trkpt>
      <trkpt lat="46.02455" lon="3.81508">
        <ele>1035</ele>
        <time>2013-08-21T15:05:19Z</time>
      </trkpt>
      <trkpt lat="46.02459" lon="3.815">
        <ele>1034</ele>
        <time>2013-08-21T15:05:19Z</time>
      </trkpt>
      <trkpt lat="46.02436" lon="3.81492">
        <ele>1036</ele>
        <time>2013-08-21T15:05:19Z</time>
      </trkpt>
      <trkpt lat="46.02397" lon="3.81504">
        <ele>1040</ele>
        <time>2013-08-21T15:05:19Z</time>
      </trkpt>
      <trkpt lat="46.02368" lon="3.81524">
        <ele>1041</ele>
        <time>2013-08-21T15:05:19Z</time>
      </trkpt>
      <trkpt lat="46.02352" lon="3.81542">
        <ele>1043</ele>
        <time>2013-08-21T15:05:19Z</time>
      </trkpt>
      <trkpt lat="46.02329" lon="3.8156">
        <ele>1046</ele>
        <time>2013-08-21T15:05:19Z</time>
      </trkpt>
      <trkpt lat="46.02276" lon="3.81617">
        <ele>1052</ele>
        <time>2013-08-21T15:05:19Z</time>
      </trkpt>
      <trkpt lat="46.02248" lon="3.81631">
        <ele>1055</ele>
        <time>2013-08-21T15:05:19Z</time>
      </trkpt>
      <trkpt lat="46.02218" lon="3.81637">
        <ele>1057</ele>
        <time>2013-08-21T15:05:19Z</time>
      </trkpt>
      <trkpt lat="46.02166" lon="3.81681">
        <ele>1062</ele>
        <time>2013-08-21T15:05:19Z</time>
      </trkpt>
      <trkpt lat="46.02162" lon="3.81674">
        <ele>1062</ele>
        <time>2013-08-21T15:05:19Z</time>
      </trkpt>
      <trkpt lat="46.02147" lon="3.8168">
        <ele>1064</ele>
        <time>2013-08-21T15:05:19Z</time>
      </trkpt>
      <trkpt lat="46.02127" lon="3.81692">
        <ele>1066</ele>
        <time>2013-08-21T15:05:19Z</time>
      </trkpt>
      <trkpt lat="46.02116" lon="3.81709">
        <ele>1066</ele>
        <time>2013-08-21T15:05:19Z</time>
      </trkpt>
      <trkpt lat="46.02069" lon="3.81749">
        <ele>1069</ele>
        <time>2013-08-21T15:05:19Z</time>
      </trkpt>
      <trkpt lat="46.02061" lon="3.81748">
        <ele>1070</ele>
        <time>2013-08-21T15:05:19Z</time>
      </trkpt>
      <trkpt lat="46.02028" lon="3.81735">
        <ele>1073</ele>
        <time>2013-08-21T15:05:19Z</time>
      </trkpt>
      <trkpt lat="46.01993" lon="3.81743">
        <ele>1076</ele>
        <time>2013-08-21T15:05:19Z</time>
      </trkpt>
      <trkpt lat="46.01946" lon="3.81771">
        <ele>1080</ele>
        <time>2013-08-21T15:05:19Z</time>
      </trkpt>
      <trkpt lat="46.01937" lon="3.8179">
        <ele>1081</ele>
        <time>2013-08-21T15:05:19Z</time>
      </trkpt>
      <trkpt lat="46.01885" lon="3.81879">
        <ele>1087</ele>
        <time>2013-08-21T15:05:19Z</time>
      </trkpt>
      <trkpt lat="46.01873" lon="3.81915">
        <ele>1090</ele>
        <time>2013-08-21T15:05:19Z</time>
      </trkpt>
      <trkpt lat="46.01849" lon="3.81937">
        <ele>1092</ele>
        <time>2013-08-21T15:05:19Z</time>
      </trkpt>
      <trkpt lat="46.01819" lon="3.81953">
        <ele>1095</ele>
        <time>2013-08-21T15:05:19Z</time>
      </trkpt>
      <trkpt lat="46.01801" lon="3.81957">
        <ele>1097</ele>
        <time>2013-08-21T15:05:19Z</time>
      </trkpt>
      <trkpt lat="46.01789" lon="3.81957">
        <ele>1097</ele>
        <time>2013-08-21T15:05:19Z</time>
      </trkpt>
      <trkpt lat="46.01782" lon="3.8195">
        <ele>1097</ele>
        <time>2013-08-21T15:05:19Z</time>
      </trkpt>
      <trkpt lat="46.01752" lon="3.81931">
        <ele>1098</ele>
        <time>2013-08-21T15:05:19Z</time>
      </trkpt>
      <trkpt lat="46.01712" lon="3.81939">
        <ele>1095</ele>
        <time>2013-08-21T15:05:19Z</time>
      </trkpt>
      <trkpt lat="46.01608" lon="3.82045">
        <ele>1084</ele>
        <time>2013-08-21T15:05:19Z</time>
      </trkpt>
      <trkpt lat="46.01572" lon="3.82134">
        <ele>1083</ele>
        <time>2013-08-21T15:05:19Z</time>
      </trkpt>
      <trkpt lat="46.01548" lon="3.82157">
        <ele>1085</ele>
        <time>2013-08-21T15:05:19Z</time>
      </trkpt>
      <trkpt lat="46.01499" lon="3.82154">
        <ele>1087</ele>
        <time>2013-08-21T15:05:19Z</time>
      </trkpt>
      <trkpt lat="46.01398" lon="3.8226">
        <ele>1096</ele>
        <time>2013-08-21T15:05:19Z</time>
      </trkpt>
      <trkpt lat="46.01367" lon="3.8229">
        <ele>1098</ele>
        <time>2013-08-21T15:05:19Z</time>
      </trkpt>
      <trkpt lat="46.01363" lon="3.82291">
        <ele>1099</ele>
        <time>2013-08-21T15:05:19Z</time>
      </trkpt>
      <trkpt lat="46.01328" lon="3.82281">
        <ele>1102</ele>
        <time>2013-08-21T15:05:19Z</time>
      </trkpt>
      <trkpt lat="46.01333" lon="3.82233">
        <ele>1104</ele>
        <time>2013-08-21T15:05:19Z</time>
      </trkpt>
      <trkpt lat="46.01352" lon="3.82213">
        <ele>1105</ele>
        <time>2013-08-21T15:05:19Z</time>
      </trkpt>
      <trkpt lat="46.01369" lon="3.82185">
        <ele>1104</ele>
        <time>2013-08-21T15:05:19Z</time>
      </trkpt>
      <trkpt lat="46.01404" lon="3.8212">
        <ele>1099</ele>
        <time>2013-08-21T15:05:19Z</time>
      </trkpt>
      <trkpt lat="46.01428" lon="3.82069">
        <ele>1094</ele>
        <time>2013-08-21T15:05:19Z</time>
      </trkpt>
      <trkpt lat="46.01441" lon="3.81986">
        <ele>1094</ele>
        <time>2013-08-21T15:05:19Z</time>
      </trkpt>
      <trkpt lat="46.01407" lon="3.81962">
        <ele>1094</ele>
        <time>2013-08-21T15:05:19Z</time>
      </trkpt>
      <trkpt lat="46.01397" lon="3.81942">
        <ele>1093</ele>
        <time>2013-08-21T15:05:19Z</time>
      </trkpt>
      <trkpt lat="46.01371" lon="3.81808">
        <ele>1085</ele>
        <time>2013-08-21T15:05:19Z</time>
      </trkpt>
      <trkpt lat="46.01365" lon="3.81658">
        <ele>1080</ele>
        <time>2013-08-21T15:05:19Z</time>
      </trkpt>
      <trkpt lat="46.01338" lon="3.81622">
        <ele>1076</ele>
        <time>2013-08-21T15:05:19Z</time>
      </trkpt>
      <trkpt lat="46.01319" lon="3.81606">
        <ele>1072</ele>
        <time>2013-08-21T15:05:19Z</time>
      </trkpt>
      <trkpt lat="46.01256" lon="3.81542">
        <ele>1060</ele>
        <time>2013-08-21T15:05:19Z</time>
      </trkpt>
      <trkpt lat="46.01245" lon="3.81503">
        <ele>1054</ele>
        <time>2013-08-21T15:05:19Z</time>
      </trkpt>
      <trkpt lat="46.01241" lon="3.81475">
        <ele>1051</ele>
        <time>2013-08-21T15:05:19Z</time>
      </trkpt>
      <trkpt lat="46.01242" lon="3.81431">
        <ele>1047</ele>
        <time>2013-08-21T15:05:19Z</time>
      </trkpt>
      <trkpt lat="46.01223" lon="3.81366">
        <ele>1040</ele>
        <time>2013-08-21T15:05:19Z</time>
      </trkpt>
      <trkpt lat="46.01205" lon="3.81327">
        <ele>1039</ele>
        <time>2013-08-21T15:05:19Z</time>
      </trkpt>
      <trkpt lat="46.01191" lon="3.8126">
        <ele>1028</ele>
        <time>2013-08-21T15:05:19Z</time>
      </trkpt>
      <trkpt lat="46.01201" lon="3.81205">
        <ele>1025</ele>
        <time>2013-08-21T15:05:19Z</time>
      </trkpt>
      <trkpt lat="46.0122" lon="3.8112">
        <ele>1017</ele>
        <time>2013-08-21T15:05:19Z</time>
      </trkpt>
      <trkpt lat="46.01224" lon="3.81085">
        <ele>1014</ele>
        <time>2013-08-21T15:05:19Z</time>
      </trkpt>
      <trkpt lat="46.01232" lon="3.8107">
        <ele>1010</ele>
        <time>2013-08-21T15:05:19Z</time>
      </trkpt>
      <trkpt lat="46.01233" lon="3.81043">
        <ele>1006</ele>
        <time>2013-08-21T15:05:19Z</time>
      </trkpt>
      <trkpt lat="46.0124" lon="3.81013">
        <ele>1005</ele>
        <time>2013-08-21T15:05:19Z</time>
      </trkpt>
      <trkpt lat="46.01238" lon="3.81013">
        <ele>1003</ele>
        <time>2013-08-21T15:05:19Z</time>
      </trkpt>
      <trkpt lat="46.01235" lon="3.80991">
        <ele>1002</ele>
        <time>2013-08-21T15:05:19Z</time>
      </trkpt>
      <trkpt lat="46.01221" lon="3.80964">
        <ele>1004</ele>
        <time>2013-08-21T15:05:19Z</time>
      </trkpt>
      <trkpt lat="46.01241" lon="3.80935">
        <ele>1008</ele>
        <time>2013-08-21T15:05:19Z</time>
      </trkpt>
      <trkpt lat="46.01308" lon="3.80868">
        <ele>1017</ele>
        <time>2013-08-21T15:05:19Z</time>
      </trkpt>
      <trkpt lat="46.01331" lon="3.80856">
        <ele>1017</ele>
        <time>2013-08-21T15:05:19Z</time>
      </trkpt>
      <trkpt lat="46.01354" lon="3.80835">
        <ele>1019</ele>
        <time>2013-08-21T15:05:19Z</time>
      </trkpt>
      <trkpt lat="46.01386" lon="3.80801">
        <ele>1022</ele>
        <time>2013-08-21T15:05:19Z</time>
      </trkpt>
      <trkpt lat="46.01428" lon="3.80768">
        <ele>1023</ele>
        <time>2013-08-21T15:05:19Z</time>
      </trkpt>
      <trkpt lat="46.01458" lon="3.80741">
        <ele>1023</ele>
        <time>2013-08-21T15:05:19Z</time>
      </trkpt>
      <trkpt lat="46.01496" lon="3.80703">
        <ele>1026</ele>
        <time>2013-08-21T15:05:19Z</time>
      </trkpt>
      <trkpt lat="46.01548" lon="3.80631">
        <ele>1031</ele>
        <time>2013-08-21T15:05:19Z</time>
      </trkpt>
      <trkpt lat="46.01559" lon="3.80611">
        <ele>1033</ele>
        <time>2013-08-21T15:05:19Z</time>
      </trkpt>
      <trkpt lat="46.01574" lon="3.80543">
        <ele>1035</ele>
        <time>2013-08-21T15:05:19Z</time>
      </trkpt>
      <trkpt lat="46.01583" lon="3.80514">
        <ele>1036</ele>
        <time>2013-08-21T15:05:19Z</time>
      </trkpt>
      <trkpt lat="46.01602" lon="3.8046">
        <ele>1036</ele>
        <time>2013-08-21T15:05:19Z</time>
      </trkpt>
      <trkpt lat="46.01639" lon="3.8038">
        <ele>1036</ele>
        <time>2013-08-21T15:05:19Z</time>
      </trkpt>
      <trkpt lat="46.01671" lon="3.80327">
        <ele>1036</ele>
        <time>2013-08-21T15:05:19Z</time>
      </trkpt>
      <trkpt lat="46.01706" lon="3.80289">
        <ele>1036</ele>
        <time>2013-08-21T15:05:19Z</time>
      </trkpt>
      <trkpt lat="46.01743" lon="3.80238">
        <ele>1037</ele>
        <time>2013-08-21T15:05:19Z</time>
      </trkpt>
      <trkpt lat="46.01767" lon="3.80184">
        <ele>1037</ele>
        <time>2013-08-21T15:05:19Z</time>
      </trkpt>
      <trkpt lat="46.01772" lon="3.80141">
        <ele>1039</ele>
        <time>2013-08-21T15:05:19Z</time>
      </trkpt>
      <trkpt lat="46.01737" lon="3.80105">
        <ele>1043</ele>
        <time>2013-08-21T15:05:19Z</time>
      </trkpt>
      <trkpt lat="46.01723" lon="3.80061">
        <ele>1045</ele>
        <time>2013-08-21T15:05:19Z</time>
      </trkpt>
      <trkpt lat="46.01714" lon="3.80037">
        <ele>1046</ele>
        <time>2013-08-21T15:05:19Z</time>
      </trkpt>
      <trkpt lat="46.01673" lon="3.80032">
        <ele>1050</ele>
        <time>2013-08-21T15:05:19Z</time>
      </trkpt>
      <trkpt lat="46.01657" lon="3.80039">
        <ele>1051</ele>
        <time>2013-08-21T15:05:19Z</time>
      </trkpt>
      <trkpt lat="46.01624" lon="3.80089">
        <ele>1056</ele>
        <time>2013-08-21T15:05:19Z</time>
      </trkpt>
      <trkpt lat="46.0162" lon="3.80098">
        <ele>1059</ele>
        <time>2013-08-21T15:05:19Z</time>
      </trkpt>
      <trkpt lat="46.01614" lon="3.80108">
        <ele>1060</ele>
        <time>2013-08-21T15:05:19Z</time>
      </trkpt>
      <trkpt lat="46.01596" lon="3.80108">
        <ele>1061</ele>
        <time>2013-08-21T15:05:19Z</time>
      </trkpt>
      <trkpt lat="46.01589" lon="3.80118">
        <ele>1061</ele>
        <time>2013-08-21T15:05:19Z</time>
      </trkpt>
      <trkpt lat="46.01577" lon="3.80143">
        <ele>1064</ele>
        <time>2013-08-21T15:05:19Z</time>
      </trkpt>
      <trkpt lat="46.01558" lon="3.80173">
        <ele>1066</ele>
        <time>2013-08-21T15:05:19Z</time>
      </trkpt>
      <trkpt lat="46.01542" lon="3.80203">
        <ele>1068</ele>
        <time>2013-08-21T15:05:19Z</time>
      </trkpt>
      <trkpt lat="46.01519" lon="3.80226">
        <ele>1070</ele>
        <time>2013-08-21T15:05:19Z</time>
      </trkpt>
      <trkpt lat="46.01476" lon="3.80261">
        <ele>1073</ele>
        <time>2013-08-21T15:05:19Z</time>
      </trkpt>
      <trkpt lat="46.01444" lon="3.80281">
        <ele>1076</ele>
        <time>2013-08-21T15:05:19Z</time>
      </trkpt>
      <trkpt lat="46.01421" lon="3.803">
        <ele>1077</ele>
        <time>2013-08-21T15:05:19Z</time>
      </trkpt>
      <trkpt lat="46.01396" lon="3.80257">
        <ele>1080</ele>
        <time>2013-08-21T15:05:19Z</time>
      </trkpt>
      <trkpt lat="46.0138" lon="3.80243">
        <ele>1080</ele>
        <time>2013-08-21T15:05:19Z</time>
      </trkpt>
      <trkpt lat="46.0135" lon="3.80238">
        <ele>1081</ele>
        <time>2013-08-21T15:05:19Z</time>
      </trkpt>
      <trkpt lat="46.01311" lon="3.80217">
        <ele>1083</ele>
        <time>2013-08-21T15:05:19Z</time>
      </trkpt>
      <trkpt lat="46.0128" lon="3.80221">
        <ele>1083</ele>
        <time>2013-08-21T15:05:19Z</time>
      </trkpt>
      <trkpt lat="46.0122" lon="3.8021">
        <ele>1083</ele>
        <time>2013-08-21T15:05:19Z</time>
      </trkpt>
      <trkpt lat="46.01196" lon="3.80209">
        <ele>1082</ele>
        <time>2013-08-21T15:05:19Z</time>
      </trkpt>
      <trkpt lat="46.01143" lon="3.80221">
        <ele>1085</ele>
        <time>2013-08-21T15:05:19Z</time>
      </trkpt>
      <trkpt lat="46.01122" lon="3.80234">
        <ele>1084</ele>
        <time>2013-08-21T15:05:19Z</time>
      </trkpt>
      <trkpt lat="46.01075" lon="3.80245">
        <ele>1086</ele>
        <time>2013-08-21T15:05:19Z</time>
      </trkpt>
      <trkpt lat="46.01039" lon="3.80231">
        <ele>1087</ele>
        <time>2013-08-21T15:05:19Z</time>
      </trkpt>
      <trkpt lat="46.01005" lon="3.802">
        <ele>1088</ele>
        <time>2013-08-21T15:05:19Z</time>
      </trkpt>
      <trkpt lat="46.00932" lon="3.80178">
        <ele>1091</ele>
        <time>2013-08-21T15:05:19Z</time>
      </trkpt>
      <trkpt lat="46.00842" lon="3.80063">
        <ele>1088</ele>
        <time>2013-08-21T15:05:19Z</time>
      </trkpt>
      <trkpt lat="46.00803" lon="3.79998">
        <ele>1082</ele>
        <time>2013-08-21T15:05:19Z</time>
      </trkpt>
      <trkpt lat="46.00747" lon="3.79936">
        <ele>1080</ele>
        <time>2013-08-21T15:05:19Z</time>
      </trkpt>
      <trkpt lat="46.00693" lon="3.79911">
        <ele>1078</ele>
        <time>2013-08-21T15:05:19Z</time>
      </trkpt>
      <trkpt lat="46.00639" lon="3.79862">
        <ele>1077</ele>
        <time>2013-08-21T15:05:19Z</time>
      </trkpt>
      <trkpt lat="46.00604" lon="3.79847">
        <ele>1074</ele>
        <time>2013-08-21T15:05:19Z</time>
      </trkpt>
      <trkpt lat="46.00597" lon="3.79885">
        <ele>1074</ele>
        <time>2013-08-21T15:05:19Z</time>
      </trkpt>
      <trkpt lat="46.00569" lon="3.79926">
        <ele>1077</ele>
        <time>2013-08-21T15:05:19Z</time>
      </trkpt>
      <trkpt lat="46.00575" lon="3.79927">
        <ele>1078</ele>
        <time>2013-08-21T15:05:19Z</time>
      </trkpt>
      <trkpt lat="46.00575" lon="3.79919">
        <ele>1078</ele>
        <time>2013-08-21T15:05:19Z</time>
      </trkpt>
      <trkpt lat="46.00577" lon="3.79919">
        <ele>1078</ele>
        <time>2013-08-21T15:05:19Z</time>
      </trkpt>
      <trkpt lat="46.00578" lon="3.79923">
        <ele>1078</ele>
        <time>2013-08-21T15:05:19Z</time>
      </trkpt>
      <trkpt lat="46.00574" lon="3.79924">
        <ele>1078</ele>
        <time>2013-08-21T15:05:19Z</time>
      </trkpt>
      <trkpt lat="46.00586" lon="3.79919">
        <ele>1079</ele>
        <time>2013-08-21T15:05:19Z</time>
      </trkpt>
      <trkpt lat="46.00577" lon="3.79927">
        <ele>1079</ele>
        <time>2013-08-21T15:05:19Z</time>
      </trkpt>
      <trkpt lat="46.00551" lon="3.79922">
        <ele>1080</ele>
        <time>2013-08-21T15:05:19Z</time>
      </trkpt>
      <trkpt lat="46.0053" lon="3.79929">
        <ele>1080</ele>
        <time>2013-08-21T15:05:19Z</time>
      </trkpt>
      <trkpt lat="46.00517" lon="3.79924">
        <ele>1082</ele>
        <time>2013-08-21T15:05:19Z</time>
      </trkpt>
      <trkpt lat="46.00513" lon="3.79919">
        <ele>1083</ele>
        <time>2013-08-21T15:05:19Z</time>
      </trkpt>
      <trkpt lat="46.00486" lon="3.79867">
        <ele>1086</ele>
        <time>2013-08-21T15:05:19Z</time>
      </trkpt>
      <trkpt lat="46.00475" lon="3.79841">
        <ele>1087</ele>
        <time>2013-08-21T15:05:19Z</time>
      </trkpt>
      <trkpt lat="46.00462" lon="3.79786">
        <ele>1090</ele>
        <time>2013-08-21T15:05:19Z</time>
      </trkpt>
      <trkpt lat="46.00458" lon="3.7975">
        <ele>1093</ele>
        <time>2013-08-21T15:05:19Z</time>
      </trkpt>
      <trkpt lat="46.00463" lon="3.79714">
        <ele>1095</ele>
        <time>2013-08-21T15:05:19Z</time>
      </trkpt>
      <trkpt lat="46.00487" lon="3.79666">
        <ele>1098</ele>
        <time>2013-08-21T15:05:19Z</time>
      </trkpt>
      <trkpt lat="46.00506" lon="3.79581">
        <ele>1101</ele>
        <time>2013-08-21T15:05:19Z</time>
      </trkpt>
      <trkpt lat="46.00518" lon="3.79513">
        <ele>1103</ele>
        <time>2013-08-21T15:05:19Z</time>
      </trkpt>
      <trkpt lat="46.00518" lon="3.79496">
        <ele>1104</ele>
        <time>2013-08-21T15:05:19Z</time>
      </trkpt>
      <trkpt lat="46.00484" lon="3.79428">
        <ele>1106</ele>
        <time>2013-08-21T15:05:19Z</time>
      </trkpt>
      <trkpt lat="46.00452" lon="3.79419">
        <ele>1107</ele>
        <time>2013-08-21T15:05:19Z</time>
      </trkpt>
      <trkpt lat="46.00401" lon="3.79413">
        <ele>1109</ele>
        <time>2013-08-21T15:05:19Z</time>
      </trkpt>
      <trkpt lat="46.00362" lon="3.79408">
        <ele>1114</ele>
        <time>2013-08-21T15:05:19Z</time>
      </trkpt>
      <trkpt lat="46.00318" lon="3.79389">
        <ele>1116</ele>
        <time>2013-08-21T15:05:19Z</time>
      </trkpt>
      <trkpt lat="46.00302" lon="3.79394">
        <ele>1118</ele>
        <time>2013-08-21T15:05:19Z</time>
      </trkpt>
      <trkpt lat="46.00267" lon="3.79425">
        <ele>1121</ele>
        <time>2013-08-21T15:05:19Z</time>
      </trkpt>
      <trkpt lat="46.00252" lon="3.79402">
        <ele>1119</ele>
        <time>2013-08-21T15:05:19Z</time>
      </trkpt>
      <trkpt lat="46.00208" lon="3.79244">
        <ele>1105</ele>
        <time>2013-08-21T15:05:19Z</time>
      </trkpt>
      <trkpt lat="46.0016" lon="3.79095">
        <ele>1099</ele>
        <time>2013-08-21T15:05:19Z</time>
      </trkpt>
      <trkpt lat="46.00156" lon="3.79032">
        <ele>1100</ele>
        <time>2013-08-21T15:05:19Z</time>
      </trkpt>
      <trkpt lat="46.00127" lon="3.79014">
        <ele>1096</ele>
        <time>2013-08-21T15:05:19Z</time>
      </trkpt>
      <trkpt lat="46.00105" lon="3.78975">
        <ele>1090</ele>
        <time>2013-08-21T15:05:19Z</time>
      </trkpt>
      <trkpt lat="46.0006" lon="3.78886">
        <ele>1078</ele>
        <time>2013-08-21T15:05:19Z</time>
      </trkpt>
      <trkpt lat="46.00061" lon="3.78828">
        <ele>1071</ele>
        <time>2013-08-21T15:05:19Z</time>
      </trkpt>
      <trkpt lat="46.00072" lon="3.7879">
        <ele>1065</ele>
        <time>2013-08-21T15:05:19Z</time>
      </trkpt>
      <trkpt lat="46.00126" lon="3.78691">
        <ele>1040</ele>
        <time>2013-08-21T15:05:19Z</time>
      </trkpt>
      <trkpt lat="46.00153" lon="3.78654">
        <ele>1033</ele>
        <time>2013-08-21T15:05:19Z</time>
      </trkpt>
      <trkpt lat="46.00173" lon="3.7861">
        <ele>1030</ele>
        <time>2013-08-21T15:05:19Z</time>
      </trkpt>
      <trkpt lat="46.00198" lon="3.78582">
        <ele>1025</ele>
        <time>2013-08-21T15:05:19Z</time>
      </trkpt>
      <trkpt lat="46.00214" lon="3.78552">
        <ele>1020</ele>
        <time>2013-08-21T15:05:19Z</time>
      </trkpt>
      <trkpt lat="46.00225" lon="3.78518">
        <ele>1014</ele>
        <time>2013-08-21T15:05:19Z</time>
      </trkpt>
      <trkpt lat="46.00231" lon="3.7847">
        <ele>1008</ele>
        <time>2013-08-21T15:05:19Z</time>
      </trkpt>
      <trkpt lat="46.00229" lon="3.78422">
        <ele>1002</ele>
        <time>2013-08-21T15:05:19Z</time>
      </trkpt>
      <trkpt lat="46.00214" lon="3.78372">
        <ele>1003</ele>
        <time>2013-08-21T15:05:19Z</time>
      </trkpt>
      <trkpt lat="46.00215" lon="3.78362">
        <ele>1002</ele>
        <time>2013-08-21T15:05:19Z</time>
      </trkpt>
      <trkpt lat="46.00223" lon="3.7837">
        <ele>1002</ele>
        <time>2013-08-21T15:05:19Z</time>
      </trkpt>
      <trkpt lat="46.00217" lon="3.78377">
        <ele>1003</ele>
        <time>2013-08-21T15:05:19Z</time>
      </trkpt>
      <trkpt lat="46.00217" lon="3.78366">
        <ele>1002</ele>
        <time>2013-08-21T15:05:19Z</time>
      </trkpt>
      <trkpt lat="46.00205" lon="3.78318">
        <ele>998</ele>
        <time>2013-08-21T15:05:19Z</time>
      </trkpt>
      <trkpt lat="46.00183" lon="3.78187">
        <ele>990</ele>
        <time>2013-08-21T15:05:19Z</time>
      </trkpt>
      <trkpt lat="46.00148" lon="3.78157">
        <ele>985</ele>
        <time>2013-08-21T15:05:19Z</time>
      </trkpt>
      <trkpt lat="46.00126" lon="3.78095">
        <ele>981</ele>
        <time>2013-08-21T15:05:19Z</time>
      </trkpt>
      <trkpt lat="46.00017" lon="3.77965">
        <ele>974</ele>
        <time>2013-08-21T15:05:19Z</time>
      </trkpt>
      <trkpt lat="46.00023" lon="3.77942">
        <ele>970</ele>
        <time>2013-08-21T15:05:19Z</time>
      </trkpt>
      <trkpt lat="46.00001" lon="3.77906">
        <ele>965</ele>
        <time>2013-08-21T15:05:19Z</time>
      </trkpt>
      <trkpt lat="45.99971" lon="3.77811">
        <ele>956</ele>
        <time>2013-08-21T15:05:19Z</time>
      </trkpt>
      <trkpt lat="45.99946" lon="3.77749">
        <ele>949</ele>
        <time>2013-08-21T15:05:19Z</time>
      </trkpt>
      <trkpt lat="45.99905" lon="3.77623">
        <ele>936</ele>
        <time>2013-08-21T15:05:19Z</time>
      </trkpt>
      <trkpt lat="45.99862" lon="3.77524">
        <ele>919</ele>
        <time>2013-08-21T15:05:19Z</time>
      </trkpt>
      <trkpt lat="45.99815" lon="3.77479">
        <ele>906</ele>
        <time>2013-08-21T15:05:19Z</time>
      </trkpt>
      <trkpt lat="45.99795" lon="3.77465">
        <ele>901</ele>
        <time>2013-08-21T15:05:19Z</time>
      </trkpt>
      <trkpt lat="45.99781" lon="3.77442">
        <ele>896</ele>
        <time>2013-08-21T15:05:19Z</time>
      </trkpt>
      <trkpt lat="45.99772" lon="3.77413">
        <ele>892</ele>
        <time>2013-08-21T15:05:19Z</time>
      </trkpt>
      <trkpt lat="45.99771" lon="3.77375">
        <ele>886</ele>
        <time>2013-08-21T15:05:19Z</time>
      </trkpt>
      <trkpt lat="45.9975" lon="3.7735">
        <ele>880</ele>
        <time>2013-08-21T15:05:19Z</time>
      </trkpt>
      <trkpt lat="45.9975" lon="3.77338">
        <ele>878</ele>
        <time>2013-08-21T15:05:19Z</time>
      </trkpt>
      <trkpt lat="45.99746" lon="3.77324">
        <ele>875</ele>
        <time>2013-08-21T15:05:19Z</time>
      </trkpt>
      <trkpt lat="45.99755" lon="3.77298">
        <ele>871</ele>
        <time>2013-08-21T15:05:19Z</time>
      </trkpt>
      <trkpt lat="45.9975" lon="3.77297">
        <ele>871</ele>
        <time>2013-08-21T15:05:19Z</time>
      </trkpt>
      <trkpt lat="45.99753" lon="3.77294">
        <ele>870</ele>
        <time>2013-08-21T15:05:19Z</time>
      </trkpt>
      <trkpt lat="45.99751" lon="3.77294">
        <ele>869</ele>
        <time>2013-08-21T15:05:19Z</time>
      </trkpt>
      <trkpt lat="45.99757" lon="3.77292">
        <ele>869</ele>
        <time>2013-08-21T15:05:19Z</time>
      </trkpt>
      <trkpt lat="45.99752" lon="3.7729">
        <ele>868</ele>
        <time>2013-08-21T15:05:19Z</time>
      </trkpt>
      <trkpt lat="45.99753" lon="3.77289">
        <ele>868</ele>
        <time>2013-08-21T15:05:19Z</time>
      </trkpt>
      <trkpt lat="45.99756" lon="3.77284">
        <ele>867</ele>
        <time>2013-08-21T15:05:19Z</time>
      </trkpt>
      <trkpt lat="45.99753" lon="3.77263">
        <ele>861</ele>
        <time>2013-08-21T15:05:19Z</time>
      </trkpt>
      <trkpt lat="45.99753" lon="3.77272">
        <ele>861</ele>
        <time>2013-08-21T15:05:19Z</time>
      </trkpt>
      <trkpt lat="45.99747" lon="3.77276">
        <ele>860</ele>
        <time>2013-08-21T15:05:19Z</time>
      </trkpt>
      <trkpt lat="45.99725" lon="3.77258">
        <ele>852</ele>
        <time>2013-08-21T15:05:19Z</time>
      </trkpt>
      <trkpt lat="45.99707" lon="3.77247">
        <ele>847</ele>
        <time>2013-08-21T15:05:19Z</time>
      </trkpt>
      <trkpt lat="45.99656" lon="3.77244">
        <ele>830</ele>
        <time>2013-08-21T15:05:19Z</time>
      </trkpt>
      <trkpt lat="45.99654" lon="3.77217">
        <ele>826</ele>
        <time>2013-08-21T15:05:19Z</time>
      </trkpt>
      <trkpt lat="45.99645" lon="3.77172">
        <ele>820</ele>
        <time>2013-08-21T15:05:19Z</time>
      </trkpt>
      <trkpt lat="45.99643" lon="3.77153">
        <ele>817</ele>
        <time>2013-08-21T15:05:19Z</time>
      </trkpt>
      <trkpt lat="45.99636" lon="3.77145">
        <ele>812</ele>
        <time>2013-08-21T15:05:19Z</time>
      </trkpt>
      <trkpt lat="45.99621" lon="3.77116">
        <ele>808</ele>
        <time>2013-08-21T15:05:19Z</time>
      </trkpt>
      <trkpt lat="45.99615" lon="3.77114">
        <ele>807</ele>
        <time>2013-08-21T15:05:19Z</time>
      </trkpt>
      <trkpt lat="45.99617" lon="3.77094">
        <ele>804</ele>
        <time>2013-08-21T15:05:19Z</time>
      </trkpt>
      <trkpt lat="45.99616" lon="3.77071">
        <ele>801</ele>
        <time>2013-08-21T15:05:19Z</time>
      </trkpt>
      <trkpt lat="45.99602" lon="3.77013">
        <ele>791</ele>
        <time>2013-08-21T15:05:19Z</time>
      </trkpt>
      <trkpt lat="45.99615" lon="3.76937">
        <ele>780</ele>
        <time>2013-08-21T15:05:19Z</time>
      </trkpt>
      <trkpt lat="45.99609" lon="3.76898">
        <ele>774</ele>
        <time>2013-08-21T15:05:19Z</time>
      </trkpt>
      <trkpt lat="45.99592" lon="3.76883">
        <ele>768</ele>
        <time>2013-08-21T15:05:19Z</time>
      </trkpt>
      <trkpt lat="45.99547" lon="3.76875">
        <ele>762</ele>
        <time>2013-08-21T15:05:19Z</time>
      </trkpt>
      <trkpt lat="45.99534" lon="3.76874">
        <ele>758</ele>
        <time>2013-08-21T15:05:19Z</time>
      </trkpt>
      <trkpt lat="45.99515" lon="3.76878">
        <ele>763</ele>
        <time>2013-08-21T15:05:19Z</time>
      </trkpt>
      <trkpt lat="45.9949" lon="3.76887">
        <ele>750</ele>
        <time>2013-08-21T15:05:19Z</time>
      </trkpt>
      <trkpt lat="45.99485" lon="3.76889">
        <ele>750</ele>
        <time>2013-08-21T15:05:19Z</time>
      </trkpt>
      <trkpt lat="45.99487" lon="3.76891">
        <ele>750</ele>
        <time>2013-08-21T15:05:19Z</time>
      </trkpt>
      <trkpt lat="45.99487" lon="3.76877">
        <ele>750</ele>
        <time>2013-08-21T15:05:19Z</time>
      </trkpt>
      <trkpt lat="45.99483" lon="3.76877">
        <ele>750</ele>
        <time>2013-08-21T15:05:19Z</time>
      </trkpt>
      <trkpt lat="45.99475" lon="3.76889">
        <ele>750</ele>
        <time>2013-08-21T15:05:19Z</time>
      </trkpt>
      <trkpt lat="45.99467" lon="3.76894">
        <ele>750</ele>
        <time>2013-08-21T15:05:19Z</time>
      </trkpt>
      <trkpt lat="45.99464" lon="3.76884">
        <ele>750</ele>
        <time>2013-08-21T15:05:19Z</time>
      </trkpt>
      <trkpt lat="45.99474" lon="3.76853">
        <ele>745</ele>
        <time>2013-08-21T15:05:19Z</time>
      </trkpt>
      <trkpt lat="45.9947" lon="3.76815">
        <ele>738</ele>
        <time>2013-08-21T15:05:19Z</time>
      </trkpt>
      <trkpt lat="45.99438" lon="3.76746">
        <ele>725</ele>
        <time>2013-08-21T15:05:19Z</time>
      </trkpt>
      <trkpt lat="45.99403" lon="3.76707">
        <ele>715</ele>
        <time>2013-08-21T15:05:19Z</time>
      </trkpt>
      <trkpt lat="45.99405" lon="3.76669">
        <ele>710</ele>
        <time>2013-08-21T15:05:19Z</time>
      </trkpt>
      <trkpt lat="45.99386" lon="3.76651">
        <ele>703</ele>
        <time>2013-08-21T15:05:19Z</time>
      </trkpt>
      <trkpt lat="45.99383" lon="3.76627">
        <ele>700</ele>
        <time>2013-08-21T15:05:19Z</time>
      </trkpt>
      <trkpt lat="45.99337" lon="3.76593">
        <ele>687</ele>
        <time>2013-08-21T15:05:19Z</time>
      </trkpt>
      <trkpt lat="45.99351" lon="3.76514">
        <ele>676</ele>
        <time>2013-08-21T15:05:19Z</time>
      </trkpt>
      <trkpt lat="45.99365" lon="3.76478">
        <ele>674</ele>
        <time>2013-08-21T15:05:19Z</time>
      </trkpt>
      <trkpt lat="45.99363" lon="3.76467">
        <ele>671</ele>
        <time>2013-08-21T15:05:19Z</time>
      </trkpt>
      <trkpt lat="45.99364" lon="3.76458">
        <ele>671</ele>
        <time>2013-08-21T15:05:19Z</time>
      </trkpt>
      <trkpt lat="45.99368" lon="3.76454">
        <ele>670</ele>
        <time>2013-08-21T15:05:19Z</time>
      </trkpt>
      <trkpt lat="45.99374" lon="3.76456">
        <ele>669</ele>
        <time>2013-08-21T15:05:19Z</time>
      </trkpt>
      <trkpt lat="45.99368" lon="3.76453">
        <ele>669</ele>
        <time>2013-08-21T15:05:19Z</time>
      </trkpt>
      <trkpt lat="45.99374" lon="3.76451">
        <ele>669</ele>
        <time>2013-08-21T15:05:19Z</time>
      </trkpt>
      <trkpt lat="45.99373" lon="3.76445">
        <ele>669</ele>
        <time>2013-08-21T15:05:19Z</time>
      </trkpt>
      <trkpt lat="45.99379" lon="3.76429">
        <ele>669</ele>
        <time>2013-08-21T15:05:19Z</time>
      </trkpt>
      <trkpt lat="45.99423" lon="3.76395">
        <ele>662</ele>
        <time>2013-08-21T15:05:19Z</time>
      </trkpt>
      <trkpt lat="45.99455" lon="3.76387">
        <ele>659</ele>
        <time>2013-08-21T15:05:19Z</time>
      </trkpt>
      <trkpt lat="45.99527" lon="3.76378">
        <ele>657</ele>
        <time>2013-08-21T15:05:19Z</time>
      </trkpt>
      <trkpt lat="45.99532" lon="3.76368">
        <ele>655</ele>
        <time>2013-08-21T15:05:19Z</time>
      </trkpt>
      <trkpt lat="45.9967" lon="3.76311">
        <ele>655</ele>
        <time>2013-08-21T15:05:19Z</time>
      </trkpt>
      <trkpt lat="45.99728" lon="3.76336">
        <ele>650</ele>
        <time>2013-08-21T15:05:19Z</time>
      </trkpt>
      <trkpt lat="45.9975" lon="3.76341">
        <ele>650</ele>
        <time>2013-08-21T15:05:19Z</time>
      </trkpt>
      <trkpt lat="45.99803" lon="3.76334">
        <ele>654</ele>
        <time>2013-08-21T15:05:19Z</time>
      </trkpt>
      <trkpt lat="45.99818" lon="3.76323">
        <ele>656</ele>
        <time>2013-08-21T15:05:19Z</time>
      </trkpt>
      <trkpt lat="45.99849" lon="3.76291">
        <ele>653</ele>
        <time>2013-08-21T15:05:19Z</time>
      </trkpt>
      <trkpt lat="45.99881" lon="3.76269">
        <ele>649</ele>
        <time>2013-08-21T15:05:19Z</time>
      </trkpt>
      <trkpt lat="45.99913" lon="3.76241">
        <ele>644</ele>
        <time>2013-08-21T15:05:19Z</time>
      </trkpt>
      <trkpt lat="45.99971" lon="3.76268">
        <ele>638</ele>
        <time>2013-08-21T15:05:19Z</time>
      </trkpt>
      <trkpt lat="46.00035" lon="3.76308">
        <ele>639</ele>
        <time>2013-08-21T15:05:19Z</time>
      </trkpt>
      <trkpt lat="46.00061" lon="3.76373">
        <ele>641</ele>
        <time>2013-08-21T15:05:19Z</time>
      </trkpt>
      <trkpt lat="46.00099" lon="3.76395">
        <ele>644</ele>
        <time>2013-08-21T15:05:19Z</time>
      </trkpt>
      <trkpt lat="46.00107" lon="3.76407">
        <ele>645</ele>
        <time>2013-08-21T15:05:19Z</time>
      </trkpt>
      <trkpt lat="46.00131" lon="3.76418">
        <ele>647</ele>
        <time>2013-08-21T15:05:19Z</time>
      </trkpt>
      <trkpt lat="46.00177" lon="3.76421">
        <ele>652</ele>
        <time>2013-08-21T15:05:19Z</time>
      </trkpt>
      <trkpt lat="46.00195" lon="3.76426">
        <ele>655</ele>
        <time>2013-08-21T15:05:19Z</time>
      </trkpt>
      <trkpt lat="46.00226" lon="3.76442">
        <ele>659</ele>
        <time>2013-08-21T15:05:19Z</time>
      </trkpt>
      <trkpt lat="46.00242" lon="3.76456">
        <ele>661</ele>
        <time>2013-08-21T15:05:19Z</time>
      </trkpt>
      <trkpt lat="46.00285" lon="3.76508">
        <ele>667</ele>
        <time>2013-08-21T15:05:19Z</time>
      </trkpt>
      <trkpt lat="46.00294" lon="3.76516">
        <ele>668</ele>
        <time>2013-08-21T15:05:19Z</time>
      </trkpt>
      <trkpt lat="46.00304" lon="3.76534">
        <ele>669</ele>
        <time>2013-08-21T15:05:19Z</time>
      </trkpt>
      <trkpt lat="46.0033" lon="3.76563">
        <ele>671</ele>
        <time>2013-08-21T15:05:19Z</time>
      </trkpt>
      <trkpt lat="46.00352" lon="3.76642">
        <ele>675</ele>
        <time>2013-08-21T15:05:19Z</time>
      </trkpt>
      <trkpt lat="46.00367" lon="3.76667">
        <ele>678</ele>
        <time>2013-08-21T15:05:19Z</time>
      </trkpt>
      <trkpt lat="46.00379" lon="3.76697">
        <ele>680</ele>
        <time>2013-08-21T15:05:19Z</time>
      </trkpt>
      <trkpt lat="46.00388" lon="3.76705">
        <ele>680</ele>
        <time>2013-08-21T15:05:19Z</time>
      </trkpt>
      <trkpt lat="46.00413" lon="3.76703">
        <ele>681</ele>
        <time>2013-08-21T15:05:19Z</time>
      </trkpt>
      <trkpt lat="46.00491" lon="3.76698">
        <ele>684</ele>
        <time>2013-08-21T15:05:19Z</time>
      </trkpt>
      <trkpt lat="46.00566" lon="3.76708">
        <ele>679</ele>
        <time>2013-08-21T15:05:19Z</time>
      </trkpt>
      <trkpt lat="46.00632" lon="3.76729">
        <ele>676</ele>
        <time>2013-08-21T15:05:19Z</time>
      </trkpt>
      <trkpt lat="46.00678" lon="3.76725">
        <ele>677</ele>
        <time>2013-08-21T15:05:19Z</time>
      </trkpt>
      <trkpt lat="46.0072" lon="3.76732">
        <ele>679</ele>
        <time>2013-08-21T15:05:19Z</time>
      </trkpt>
      <trkpt lat="46.00761" lon="3.76768">
        <ele>678</ele>
        <time>2013-08-21T15:05:19Z</time>
      </trkpt>
      <trkpt lat="46.00769" lon="3.76779">
        <ele>677</ele>
        <time>2013-08-21T15:05:19Z</time>
      </trkpt>
      <trkpt lat="46.00775" lon="3.76792">
        <ele>676</ele>
        <time>2013-08-21T15:05:19Z</time>
      </trkpt>
      <trkpt lat="46.00872" lon="3.76871">
        <ele>678</ele>
        <time>2013-08-21T15:05:19Z</time>
      </trkpt>
      <trkpt lat="46.00893" lon="3.76869">
        <ele>677</ele>
        <time>2013-08-21T15:05:19Z</time>
      </trkpt>
      <trkpt lat="46.00897" lon="3.76851">
        <ele>677</ele>
        <time>2013-08-21T15:05:19Z</time>
      </trkpt>
      <trkpt lat="46.00884" lon="3.76802">
        <ele>679</ele>
        <time>2013-08-21T15:05:19Z</time>
      </trkpt>
      <trkpt lat="46.00875" lon="3.76746">
        <ele>683</ele>
        <time>2013-08-21T15:05:19Z</time>
      </trkpt>
      <trkpt lat="46.00879" lon="3.76704">
        <ele>686</ele>
        <time>2013-08-21T15:05:19Z</time>
      </trkpt>
      <trkpt lat="46.00884" lon="3.76685">
        <ele>687</ele>
        <time>2013-08-21T15:05:19Z</time>
      </trkpt>
      <trkpt lat="46.00885" lon="3.76626">
        <ele>692</ele>
        <time>2013-08-21T15:05:19Z</time>
      </trkpt>
      <trkpt lat="46.00902" lon="3.76628">
        <ele>693</ele>
        <time>2013-08-21T15:05:19Z</time>
      </trkpt>
      <trkpt lat="46.01007" lon="3.76701">
        <ele>702</ele>
        <time>2013-08-21T15:05:19Z</time>
      </trkpt>
      <trkpt lat="46.01047" lon="3.76757">
        <ele>706</ele>
        <time>2013-08-21T15:05:19Z</time>
      </trkpt>
      <trkpt lat="46.01053" lon="3.76771">
        <ele>707</ele>
        <time>2013-08-21T15:05:19Z</time>
      </trkpt>
      <trkpt lat="46.01056" lon="3.76791">
        <ele>707</ele>
        <time>2013-08-21T15:05:19Z</time>
      </trkpt>
      <trkpt lat="46.01077" lon="3.76843">
        <ele>707</ele>
        <time>2013-08-21T15:05:19Z</time>
      </trkpt>
      <trkpt lat="46.01085" lon="3.76855">
        <ele>707</ele>
        <time>2013-08-21T15:05:19Z</time>
      </trkpt>
      <trkpt lat="46.01107" lon="3.76838">
        <ele>701</ele>
        <time>2013-08-21T15:05:19Z</time>
      </trkpt>
      <trkpt lat="46.01193" lon="3.76734">
        <ele>678</ele>
        <time>2013-08-21T15:05:19Z</time>
      </trkpt>
      <trkpt lat="46.01232" lon="3.76713">
        <ele>673</ele>
        <time>2013-08-21T15:05:19Z</time>
      </trkpt>
      <trkpt lat="46.01292" lon="3.76667">
        <ele>666</ele>
        <time>2013-08-21T15:05:19Z</time>
      </trkpt>
      <trkpt lat="46.01316" lon="3.76621">
        <ele>661</ele>
        <time>2013-08-21T15:05:19Z</time>
      </trkpt>
      <trkpt lat="46.01339" lon="3.76582">
        <ele>657</ele>
        <time>2013-08-21T15:05:19Z</time>
      </trkpt>
      <trkpt lat="46.01349" lon="3.76559">
        <ele>655</ele>
        <time>2013-08-21T15:05:19Z</time>
      </trkpt>
      <trkpt lat="46.01356" lon="3.76529">
        <ele>650</ele>
        <time>2013-08-21T15:05:19Z</time>
      </trkpt>
      <trkpt lat="46.01364" lon="3.76455">
        <ele>638</ele>
        <time>2013-08-21T15:05:19Z</time>
      </trkpt>
      <trkpt lat="46.01378" lon="3.76412">
        <ele>635</ele>
        <time>2013-08-21T15:05:19Z</time>
      </trkpt>
      <trkpt lat="46.01395" lon="3.76318">
        <ele>629</ele>
        <time>2013-08-21T15:05:19Z</time>
      </trkpt>
      <trkpt lat="46.0139" lon="3.76239">
        <ele>626</ele>
        <time>2013-08-21T15:05:19Z</time>
      </trkpt>
      <trkpt lat="46.01361" lon="3.76083">
        <ele>607</ele>
        <time>2013-08-21T15:05:19Z</time>
      </trkpt>
      <trkpt lat="46.014" lon="3.76058">
        <ele>603</ele>
        <time>2013-08-21T15:05:19Z</time>
      </trkpt>
      <trkpt lat="46.01421" lon="3.76079">
        <ele>606</ele>
        <time>2013-08-21T15:05:19Z</time>
      </trkpt>
      <trkpt lat="46.01446" lon="3.76094">
        <ele>610</ele>
        <time>2013-08-21T15:05:19Z</time>
      </trkpt>
      <trkpt lat="46.0146" lon="3.7609">
        <ele>611</ele>
        <time>2013-08-21T15:05:19Z</time>
      </trkpt>
      <trkpt lat="46.01465" lon="3.76081">
        <ele>612</ele>
        <time>2013-08-21T15:05:19Z</time>
      </trkpt>
      <trkpt lat="46.01468" lon="3.76087">
        <ele>612</ele>
        <time>2013-08-21T15:05:19Z</time>
      </trkpt>
      <trkpt lat="46.01465" lon="3.76053">
        <ele>614</ele>
        <time>2013-08-21T15:05:19Z</time>
      </trkpt>
      <trkpt lat="46.01483" lon="3.76007">
        <ele>615</ele>
        <time>2013-08-21T15:05:19Z</time>
      </trkpt>
      <trkpt lat="46.01521" lon="3.75974">
        <ele>617</ele>
        <time>2013-08-21T15:05:19Z</time>
      </trkpt>
      <trkpt lat="46.01551" lon="3.7596">
        <ele>622</ele>
        <time>2013-08-21T15:05:19Z</time>
      </trkpt>
      <trkpt lat="46.01605" lon="3.7591">
        <ele>618</ele>
        <time>2013-08-21T15:05:19Z</time>
      </trkpt>
      <trkpt lat="46.01627" lon="3.75824">
        <ele>619</ele>
        <time>2013-08-21T15:05:19Z</time>
      </trkpt>
      <trkpt lat="46.01651" lon="3.75769">
        <ele>618</ele>
        <time>2013-08-21T15:05:19Z</time>
      </trkpt>
      <trkpt lat="46.01671" lon="3.75755">
        <ele>614</ele>
        <time>2013-08-21T15:05:19Z</time>
      </trkpt>
      <trkpt lat="46.01794" lon="3.75744">
        <ele>610</ele>
        <time>2013-08-21T15:05:19Z</time>
      </trkpt>
      <trkpt lat="46.01803" lon="3.75711">
        <ele>611</ele>
        <time>2013-08-21T15:05:19Z</time>
      </trkpt>
      <trkpt lat="46.01803" lon="3.75692">
        <ele>611</ele>
        <time>2013-08-21T15:05:19Z</time>
      </trkpt>
      <trkpt lat="46.01793" lon="3.75628">
        <ele>610</ele>
        <time>2013-08-21T15:05:19Z</time>
      </trkpt>
      <trkpt lat="46.01814" lon="3.75582">
        <ele>611</ele>
        <time>2013-08-21T15:05:19Z</time>
      </trkpt>
      <trkpt lat="46.0186" lon="3.7557">
        <ele>616</ele>
        <time>2013-08-21T15:05:19Z</time>
      </trkpt>
      <trkpt lat="46.01871" lon="3.7548">
        <ele>612</ele>
        <time>2013-08-21T15:05:19Z</time>
      </trkpt>
      <trkpt lat="46.01907" lon="3.75439">
        <ele>611</ele>
        <time>2013-08-21T15:05:19Z</time>
      </trkpt>
      <trkpt lat="46.01912" lon="3.75424">
        <ele>611</ele>
        <time>2013-08-21T15:05:19Z</time>
      </trkpt>
      <trkpt lat="46.01905" lon="3.75406">
        <ele>610</ele>
        <time>2013-08-21T15:05:19Z</time>
      </trkpt>
      <trkpt lat="46.01892" lon="3.75406">
        <ele>612</ele>
        <time>2013-08-21T15:05:19Z</time>
      </trkpt>
      <trkpt lat="46.01887" lon="3.75402">
        <ele>614</ele>
        <time>2013-08-21T15:05:19Z</time>
      </trkpt>
      <trkpt lat="46.01873" lon="3.75404">
        <ele>615</ele>
        <time>2013-08-21T15:05:19Z</time>
      </trkpt>
      <trkpt lat="46.01825" lon="3.75401">
        <ele>621</ele>
        <time>2013-08-21T15:05:19Z</time>
      </trkpt>
      <trkpt lat="46.01791" lon="3.75382">
        <ele>625</ele>
        <time>2013-08-21T15:05:19Z</time>
      </trkpt>
      <trkpt lat="46.01781" lon="3.75361">
        <ele>625</ele>
        <time>2013-08-21T15:05:19Z</time>
      </trkpt>
      <trkpt lat="46.01786" lon="3.75321">
        <ele>625</ele>
        <time>2013-08-21T15:05:19Z</time>
      </trkpt>
      <trkpt lat="46.01784" lon="3.75279">
        <ele>625</ele>
        <time>2013-08-21T15:05:19Z</time>
      </trkpt>
      <trkpt lat="46.01808" lon="3.75201">
        <ele>628</ele>
        <time>2013-08-21T15:05:19Z</time>
      </trkpt>
      <trkpt lat="46.01797" lon="3.75183">
        <ele>630</ele>
        <time>2013-08-21T15:05:19Z</time>
      </trkpt>
      <trkpt lat="46.01792" lon="3.75163">
        <ele>634</ele>
        <time>2013-08-21T15:05:19Z</time>
      </trkpt>
      <trkpt lat="46.01808" lon="3.75159">
        <ele>638</ele>
        <time>2013-08-21T15:05:19Z</time>
      </trkpt>
      <trkpt lat="46.01815" lon="3.75154">
        <ele>639</ele>
        <time>2013-08-21T15:05:19Z</time>
      </trkpt>
      <trkpt lat="46.01862" lon="3.75148">
        <ele>646</ele>
        <time>2013-08-21T15:05:19Z</time>
      </trkpt>
      <trkpt lat="46.01885" lon="3.75136">
        <ele>649</ele>
        <time>2013-08-21T15:05:19Z</time>
      </trkpt>
      <trkpt lat="46.01907" lon="3.75131">
        <ele>651</ele>
        <time>2013-08-21T15:05:19Z</time>
      </trkpt>
      <trkpt lat="46.01918" lon="3.7513">
        <ele>653</ele>
        <time>2013-08-21T15:05:19Z</time>
      </trkpt>
      <trkpt lat="46.01939" lon="3.75132">
        <ele>656</ele>
        <time>2013-08-21T15:05:19Z</time>
      </trkpt>
      <trkpt lat="46.01965" lon="3.75157">
        <ele>657</ele>
        <time>2013-08-21T15:05:19Z</time>
      </trkpt>
      <trkpt lat="46.01993" lon="3.75206">
        <ele>661</ele>
        <time>2013-08-21T15:05:19Z</time>
      </trkpt>
      <trkpt lat="46.02014" lon="3.75233">
        <ele>666</ele>
        <time>2013-08-21T15:05:19Z</time>
      </trkpt>
      <trkpt lat="46.02028" lon="3.75258">
        <ele>667</ele>
        <time>2013-08-21T15:05:19Z</time>
      </trkpt>
      <trkpt lat="46.02042" lon="3.7529">
        <ele>664</ele>
        <time>2013-08-21T15:05:19Z</time>
      </trkpt>
      <trkpt lat="46.02109" lon="3.75284">
        <ele>671</ele>
        <time>2013-08-21T15:05:19Z</time>
      </trkpt>
      <trkpt lat="46.02129" lon="3.75284">
        <ele>674</ele>
        <time>2013-08-21T15:05:19Z</time>
      </trkpt>
      <trkpt lat="46.02132" lon="3.75274">
        <ele>676</ele>
        <time>2013-08-21T15:05:19Z</time>
      </trkpt>
      <trkpt lat="46.02141" lon="3.75269">
        <ele>677</ele>
        <time>2013-08-21T15:05:19Z</time>
      </trkpt>
      <trkpt lat="46.02149" lon="3.75271">
        <ele>678</ele>
        <time>2013-08-21T15:05:19Z</time>
      </trkpt>
    </trkseg>
  </trk>
</gpx>